Time,TemperatureF,DewpointF,PressureIn,WindDirection,WindDirectionDegrees,WindSpeedMPH,WindSpeedGustMPH,Humidity,HourlyPrecipIn,Conditions,Clouds,dailyrainin,SoftwareType,DateUTC
2013-07-10 00:00:00,69.8,62.6,29.83,WSW,257,7.0,9.0,78,0.00,,,0.94,Wunderground v.1.13,2013-07-10 05:00:00,
2013-07-10 00:01:00,69.8,62.6,29.83,West,263,7.0,9.0,78,0.00,,,0.94,Wunderground v.1.13,2013-07-10 05:01:00,
2013-07-10 00:03:00,69.8,62.6,29.83,West,261,7.0,9.0,78,0.00,,,0.00,Wunderground v.1.13,2013-07-10 05:03:00,
2013-07-10 00:05:00,69.6,62.4,29.83,West,268,7.0,7.0,78,0.00,,,0.00,Wunderground v.1.13,2013-07-10 05:05:00,
2013-07-10 00:06:00,69.5,62.0,29.83,WNW,283,7.0,7.0,77,0.00,,,0.00,Wunderground v.1.13,2013-07-10 05:06:00,
2013-07-10 00:09:00,69.4,61.9,29.83,WSW,240,7.0,9.0,77,0.00,,,0.00,Wunderground v.1.13,2013-07-10 05:09:00,
2013-07-10 00:11:00,69.3,61.8,29.83,West,261,7.0,9.0,77,0.00,,,0.00,Wunderground v.1.13,2013-07-10 05:11:00,
2013-07-10 00:12:00,69.3,61.8,29.83,West,273,7.0,9.0,77,0.00,,,0.00,Wunderground v.1.13,2013-07-10 05:12:00,
2013-07-10 00:13:00,69.2,61.7,29.83,West,276,6.0,9.0,77,0.00,,,0.00,Wunderground v.1.13,2013-07-10 05:13:00,
2013-07-10 00:14:00,69.2,61.7,29.83,WSW,252,7.0,9.0,77,0.00,,,0.00,Wunderground v.1.13,2013-07-10 05:14:00,
2013-07-10 00:17:00,69.0,61.5,29.84,West,281,6.0,8.0,77,0.00,,,0.00,Wunderground v.1.13,2013-07-10 05:17:00,
2013-07-10 00:19:00,68.9,61.8,29.84,WSW,251,7.0,8.0,78,0.00,,,0.00,Wunderground v.1.13,2013-07-10 05:19:00,
2013-07-10 00:21:00,68.8,61.7,29.84,WSW,250,7.0,10.0,78,0.00,,,0.00,Wunderground v.1.13,2013-07-10 05:21:00,
2013-07-10 00:22:00,68.8,61.3,29.84,West,272,7.0,10.0,77,0.00,,,0.00,Wunderground v.1.13,2013-07-10 05:22:00,
2013-07-10 00:23:00,68.7,61.6,29.84,WSW,257,7.0,10.0,78,0.00,,,0.00,Wunderground v.1.13,2013-07-10 05:23:00,
2013-07-10 00:26:00,68.6,61.1,29.84,West,264,7.0,7.0,77,0.00,,,0.00,Wunderground v.1.13,2013-07-10 05:26:00,
2013-07-10 00:28:00,68.5,61.0,29.84,West,279,7.0,11.0,77,0.00,,,0.00,Wunderground v.1.13,2013-07-10 05:28:00,
2013-07-10 00:29:00,68.5,61.0,29.84,West,272,7.0,11.0,77,0.00,,,0.00,Wunderground v.1.13,2013-07-10 05:29:00,
2013-07-10 00:34:00,68.5,60.6,29.84,West,264,8.0,13.0,76,0.00,,,0.00,Wunderground v.1.13,2013-07-10 05:34:00,
2013-07-10 00:36:00,68.5,60.6,29.84,West,272,8.0,8.0,76,0.00,,,0.00,Wunderground v.1.13,2013-07-10 05:36:00,
2013-07-10 00:38:00,68.4,60.2,29.84,WSW,257,7.0,9.0,75,0.00,,,0.00,Wunderground v.1.13,2013-07-10 05:38:00,
2013-07-10 00:39:00,68.3,60.1,29.84,West,272,7.0,9.0,75,0.00,,,0.00,Wunderground v.1.13,2013-07-10 05:39:00,
2013-07-10 00:40:00,68.3,60.1,29.84,West,279,7.0,7.0,75,0.00,,,0.00,Wunderground v.1.13,2013-07-10 05:40:00,
2013-07-10 00:43:00,68.2,60.0,29.84,WSW,254,6.0,8.0,75,0.00,,,0.00,Wunderground v.1.13,2013-07-10 05:43:00,
2013-07-10 00:44:00,68.2,60.0,29.84,WSW,242,6.0,8.0,75,0.00,,,0.00,Wunderground v.1.13,2013-07-10 05:44:00,
2013-07-10 00:48:00,68.0,59.8,29.85,West,264,6.0,8.0,75,0.00,,,0.00,Wunderground v.1.13,2013-07-10 05:48:00,
2013-07-10 00:50:00,67.9,58.9,29.85,WNW,283,6.0,6.0,73,0.00,,,0.00,Wunderground v.1.13,2013-07-10 05:50:00,
2013-07-10 00:51:00,67.8,58.8,29.85,West,277,6.0,11.0,73,0.00,,,0.00,Wunderground v.1.13,2013-07-10 05:51:00,
2013-07-10 00:52:00,67.8,58.4,29.85,West,275,7.0,11.0,72,0.00,,,0.00,Wunderground v.1.13,2013-07-10 05:52:00,
2013-07-10 00:54:00,67.8,58.1,29.85,West,260,7.0,11.0,71,0.00,,,0.00,Wunderground v.1.13,2013-07-10 05:54:00,
2013-07-10 00:55:00,67.7,58.0,29.85,North,5,7.0,7.0,71,0.00,,,0.00,Wunderground v.1.13,2013-07-10 05:55:00,
2013-07-10 00:58:00,67.6,57.9,29.85,WSW,257,6.0,7.0,71,0.00,,,0.00,Wunderground v.1.13,2013-07-10 05:58:00,
2013-07-10 00:59:00,67.6,57.9,29.85,West,273,6.0,8.0,71,0.00,,,0.00,Wunderground v.1.13,2013-07-10 05:59:00,
2013-07-10 01:00:00,67.5,57.8,29.85,WSW,253,6.0,6.0,71,0.00,,,0.00,Wunderground v.1.13,2013-07-10 06:00:00,
2013-07-10 01:01:00,67.5,57.8,29.85,West,269,6.0,6.0,71,0.00,,,0.00,Wunderground v.1.13,2013-07-10 06:01:00,
2013-07-10 01:03:00,67.3,57.6,29.85,West,273,5.0,7.0,71,0.00,,,0.00,Wunderground v.1.13,2013-07-10 06:03:00,
2013-07-10 01:05:00,67.3,57.6,29.85,West,272,6.0,6.0,71,0.00,,,0.00,Wunderground v.1.13,2013-07-10 06:05:00,
2013-07-10 01:06:00,67.2,57.5,29.85,West,262,6.0,6.0,71,0.00,,,0.00,Wunderground v.1.13,2013-07-10 06:06:00,
2013-07-10 01:08:00,67.1,57.8,29.85,WSW,249,6.0,6.0,72,0.00,,,0.00,Wunderground v.1.13,2013-07-10 06:08:00,
2013-07-10 01:09:00,67.1,57.8,29.85,West,260,6.0,6.0,72,0.00,,,0.00,Wunderground v.1.13,2013-07-10 06:09:00,
2013-07-10 01:11:00,67.0,57.7,29.85,WNW,288,5.0,5.0,72,0.00,,,0.00,Wunderground v.1.13,2013-07-10 06:11:00,
2013-07-10 01:12:00,67.0,57.7,29.85,West,271,5.0,6.0,72,0.00,,,0.00,Wunderground v.1.13,2013-07-10 06:12:00,
2013-07-10 01:13:00,66.9,57.6,29.85,WSW,253,5.0,6.0,72,0.00,,,0.00,Wunderground v.1.13,2013-07-10 06:13:00,
2013-07-10 01:15:00,66.8,57.9,29.85,West,264,5.0,6.0,73,0.00,,,0.00,Wunderground v.1.13,2013-07-10 06:15:00,
2013-07-10 01:17:00,66.6,57.7,29.85,West,265,5.0,6.0,73,0.00,,,0.00,Wunderground v.1.13,2013-07-10 06:17:00,
2013-07-10 01:18:00,66.6,57.7,29.85,WSW,256,5.0,6.0,73,0.00,,,0.00,Wunderground v.1.13,2013-07-10 06:18:00,
2013-07-10 01:19:00,66.5,58.0,29.85,WNW,283,5.0,6.0,74,0.00,,,0.00,Wunderground v.1.13,2013-07-10 06:19:00,
2013-07-10 01:21:00,66.4,57.9,29.85,West,270,5.0,8.0,74,0.00,,,0.00,Wunderground v.1.13,2013-07-10 06:21:00,
2013-07-10 01:23:00,66.2,57.7,29.85,West,260,5.0,8.0,74,0.00,,,0.00,Wunderground v.1.13,2013-07-10 06:23:00,
2013-07-10 01:24:00,66.2,57.7,29.85,WSW,246,5.0,8.0,74,0.00,,,0.00,Wunderground v.1.13,2013-07-10 06:24:00,
2013-07-10 01:26:00,66.1,57.6,29.85,West,278,5.0,7.0,74,0.00,,,0.00,Wunderground v.1.13,2013-07-10 06:26:00,
2013-07-10 01:27:00,66.1,57.9,29.85,West,281,5.0,7.0,75,0.00,,,0.00,Wunderground v.1.13,2013-07-10 06:27:00,
2013-07-10 01:28:00,66.0,57.8,29.85,West,267,5.0,7.0,75,0.00,,,0.00,Wunderground v.1.13,2013-07-10 06:28:00,
2013-07-10 01:31:00,65.9,57.4,29.85,West,260,5.0,7.0,74,0.00,,,0.00,Wunderground v.1.13,2013-07-10 06:31:00,
2013-07-10 01:33:00,65.8,57.3,29.85,West,273,6.0,7.0,74,0.00,,,0.00,Wunderground v.1.13,2013-07-10 06:33:00,
2013-07-10 01:36:00,65.7,57.2,29.85,West,259,5.0,6.0,74,0.00,,,0.00,Wunderground v.1.13,2013-07-10 06:36:00,
2013-07-10 01:37:00,65.6,57.1,29.85,West,264,5.0,6.0,74,0.00,,,0.00,Wunderground v.1.13,2013-07-10 06:37:00,
2013-07-10 01:38:00,65.6,57.1,29.85,WSW,250,5.0,7.0,74,0.00,,,0.00,Wunderground v.1.13,2013-07-10 06:38:00,
2013-07-10 01:40:00,65.5,57.0,29.85,WSW,251,6.0,7.0,74,0.00,,,0.00,Wunderground v.1.13,2013-07-10 06:40:00,
2013-07-10 01:41:00,65.4,56.9,29.86,West,277,6.0,9.0,74,0.00,,,0.00,Wunderground v.1.13,2013-07-10 06:41:00,
2013-07-10 01:43:00,65.3,56.8,29.86,NNW,336,6.0,9.0,74,0.00,,,0.00,Wunderground v.1.13,2013-07-10 06:43:00,
2013-07-10 01:45:00,65.3,56.0,29.86,WNW,288,7.0,9.0,72,0.00,,,0.00,Wunderground v.1.13,2013-07-10 06:45:00,
2013-07-10 01:48:00,65.2,55.9,29.86,West,266,7.0,9.0,72,0.00,,,0.00,Wunderground v.1.13,2013-07-10 06:48:00,
2013-07-10 01:50:00,65.2,55.9,29.86,West,261,7.0,9.0,72,0.00,,,0.00,Wunderground v.1.13,2013-07-10 06:50:00,
2013-07-10 01:51:00,65.2,55.9,29.86,WNW,288,6.0,6.0,72,0.00,,,0.00,Wunderground v.1.13,2013-07-10 06:51:00,
2013-07-10 01:55:00,65.0,55.8,29.86,West,268,5.0,9.0,72,0.00,,,0.00,Wunderground v.1.13,2013-07-10 06:55:00,
2013-07-10 01:57:00,64.9,55.3,29.86,West,264,6.0,8.0,71,0.00,,,0.00,Wunderground v.1.13,2013-07-10 06:57:00,
2013-07-10 01:58:00,64.9,55.3,29.86,West,267,6.0,8.0,71,0.00,,,0.00,Wunderground v.1.13,2013-07-10 06:58:00,
2013-07-10 02:00:00,64.8,55.2,29.86,WSW,246,6.0,8.0,71,0.00,,,0.00,Wunderground v.1.13,2013-07-10 07:00:00,
2013-07-10 02:03:00,64.7,55.1,29.86,WSW,256,6.0,8.0,71,0.00,,,0.00,Wunderground v.1.13,2013-07-10 07:03:00,
2013-07-10 02:05:00,64.6,55.4,29.86,WSW,252,6.0,7.0,72,0.00,,,0.00,Wunderground v.1.13,2013-07-10 07:05:00,
2013-07-10 02:08:00,64.5,55.7,29.86,West,259,6.0,7.0,73,0.00,,,0.00,Wunderground v.1.13,2013-07-10 07:08:00,
2013-07-10 02:09:00,64.4,55.6,29.87,WSW,256,6.0,7.0,73,0.00,,,0.00,Wunderground v.1.13,2013-07-10 07:09:00,
2013-07-10 02:10:00,64.4,55.6,29.87,WSW,252,6.0,7.0,73,0.00,,,0.00,Wunderground v.1.13,2013-07-10 07:10:00,
2013-07-10 02:13:00,64.2,55.4,29.87,West,263,6.0,8.0,73,0.00,,,0.00,Wunderground v.1.13,2013-07-10 07:13:00,
2013-07-10 02:14:00,64.1,55.3,29.87,WNW,294,6.0,9.0,73,0.00,,,0.00,Wunderground v.1.13,2013-07-10 07:14:00,
2013-07-10 02:16:00,64.1,55.6,29.87,West,280,6.0,11.0,74,0.00,,,0.00,Wunderground v.1.13,2013-07-10 07:16:00,
2013-07-10 02:18:00,64.0,55.5,29.87,West,263,7.0,11.0,74,0.00,,,0.00,Wunderground v.1.13,2013-07-10 07:18:00,
2013-07-10 02:20:00,63.9,55.4,29.87,WSW,247,7.0,7.0,74,0.00,,,0.00,Wunderground v.1.13,2013-07-10 07:20:00,
2013-07-10 02:22:00,63.8,55.4,29.87,West,279,7.0,8.0,74,0.00,,,0.00,Wunderground v.1.13,2013-07-10 07:22:00,
2013-07-10 02:24:00,63.7,55.3,29.87,West,260,7.0,9.0,74,0.00,,,0.00,Wunderground v.1.13,2013-07-10 07:24:00,
2013-07-10 02:28:00,63.6,55.2,29.87,West,260,7.0,9.0,74,0.00,,,0.00,Wunderground v.1.13,2013-07-10 07:28:00,
2013-07-10 02:29:00,63.6,55.2,29.87,WSW,240,7.0,9.0,74,0.00,,,0.00,Wunderground v.1.13,2013-07-10 07:29:00,
2013-07-10 02:33:00,63.5,55.1,29.88,West,263,7.0,8.0,74,0.00,,,0.00,Wunderground v.1.13,2013-07-10 07:33:00,
2013-07-10 02:34:00,63.5,55.1,29.88,WSW,244,6.0,9.0,74,0.00,,,0.00,Wunderground v.1.13,2013-07-10 07:34:00,
2013-07-10 02:35:00,63.4,55.0,29.88,West,269,6.0,9.0,74,0.00,,,0.00,Wunderground v.1.13,2013-07-10 07:35:00,
2013-07-10 02:36:00,63.4,55.0,29.88,West,272,6.0,6.0,74,0.00,,,0.00,Wunderground v.1.13,2013-07-10 07:36:00,
2013-07-10 02:37:00,63.3,54.9,29.88,West,276,6.0,6.0,74,0.00,,,0.00,Wunderground v.1.13,2013-07-10 07:37:00,
2013-07-10 02:42:00,63.1,54.7,29.88,West,259,6.0,10.0,74,0.00,,,0.00,Wunderground v.1.13,2013-07-10 07:42:00,
2013-07-10 02:43:00,63.1,54.7,29.88,WNW,296,7.0,10.0,74,0.00,,,0.00,Wunderground v.1.13,2013-07-10 07:43:00,
2013-07-10 02:46:00,63.1,54.7,29.88,West,270,6.0,6.0,74,0.00,,,0.00,Wunderground v.1.13,2013-07-10 07:46:00,
2013-07-10 02:47:00,63.1,54.7,29.88,West,275,6.0,10.0,74,0.00,,,0.00,Wunderground v.1.13,2013-07-10 07:47:00,
2013-07-10 02:48:00,63.1,54.7,29.88,WSW,253,7.0,10.0,74,0.00,,,0.00,Wunderground v.1.13,2013-07-10 07:48:00,
2013-07-10 02:51:00,63.1,54.7,29.88,WSW,248,6.0,6.0,74,0.00,,,0.00,Wunderground v.1.13,2013-07-10 07:51:00,
2013-07-10 02:52:00,63.0,54.6,29.88,WSW,254,6.0,7.0,74,0.00,,,0.00,Wunderground v.1.13,2013-07-10 07:52:00,
2013-07-10 02:56:00,62.9,54.9,29.88,West,266,5.0,6.0,75,0.00,,,0.00,Wunderground v.1.13,2013-07-10 07:56:00,
2013-07-10 02:58:00,62.8,54.8,29.88,West,259,5.0,6.0,75,0.00,,,0.00,Wunderground v.1.13,2013-07-10 07:58:00,
2013-07-10 02:59:00,62.7,54.7,29.88,West,269,5.0,6.0,75,0.00,,,0.00,Wunderground v.1.13,2013-07-10 07:59:00,
2013-07-10 03:02:00,62.6,54.6,29.88,WSW,254,5.0,7.0,75,0.00,,,0.00,Wunderground v.1.13,2013-07-10 08:02:00,
2013-07-10 03:04:00,62.5,54.8,29.88,West,262,5.0,7.0,76,0.00,,,0.00,Wunderground v.1.13,2013-07-10 08:04:00,
2013-07-10 03:05:00,62.5,54.8,29.88,West,261,5.0,5.0,76,0.00,,,0.00,Wunderground v.1.13,2013-07-10 08:05:00,
2013-07-10 03:08:00,62.3,54.6,29.88,West,260,5.0,5.0,76,0.00,,,0.00,Wunderground v.1.13,2013-07-10 08:08:00,
2013-07-10 03:09:00,62.2,54.9,29.88,West,273,5.0,5.0,77,0.00,,,0.00,Wunderground v.1.13,2013-07-10 08:09:00,
2013-07-10 03:12:00,62.1,54.8,29.88,West,261,5.0,5.0,77,0.00,,,0.00,Wunderground v.1.13,2013-07-10 08:12:00,
2013-07-10 03:13:00,62.0,54.7,29.88,West,263,5.0,6.0,77,0.00,,,0.00,Wunderground v.1.13,2013-07-10 08:13:00,
2013-07-10 03:14:00,62.0,55.1,29.88,West,281,5.0,6.0,78,0.00,,,0.00,Wunderground v.1.13,2013-07-10 08:14:00,
2013-07-10 03:15:00,62.0,55.1,29.88,WSW,254,5.0,5.0,78,0.00,,,0.00,Wunderground v.1.13,2013-07-10 08:15:00,
2013-07-10 03:18:00,61.9,55.0,29.88,West,264,6.0,6.0,78,0.00,,,0.00,Wunderground v.1.13,2013-07-10 08:18:00,
2013-07-10 03:20:00,61.8,54.9,29.89,West,277,6.0,6.0,78,0.00,,,0.00,Wunderground v.1.13,2013-07-10 08:20:00,
2013-07-10 03:21:00,61.8,54.9,29.89,WNW,286,6.0,6.0,78,0.00,,,0.00,Wunderground v.1.13,2013-07-10 08:21:00,
2013-07-10 03:22:00,61.7,54.8,29.89,West,260,6.0,6.0,78,0.00,,,0.00,Wunderground v.1.13,2013-07-10 08:22:00,
2013-07-10 03:25:00,61.7,55.1,29.89,West,270,6.0,6.0,79,0.00,,,0.00,Wunderground v.1.13,2013-07-10 08:25:00,
2013-07-10 03:26:00,61.7,55.1,29.89,West,265,6.0,7.0,79,0.00,,,0.00,Wunderground v.1.13,2013-07-10 08:26:00,
2013-07-10 03:31:00,61.5,55.3,29.89,West,263,6.0,6.0,80,0.00,,,0.00,Wunderground v.1.13,2013-07-10 08:31:00,
2013-07-10 03:32:00,61.5,55.3,29.89,West,266,6.0,6.0,80,0.00,,,0.00,Wunderground v.1.13,2013-07-10 08:32:00,
2013-07-10 03:34:00,61.4,55.2,29.89,West,268,6.0,6.0,80,0.00,,,0.00,Wunderground v.1.13,2013-07-10 08:34:00,
2013-07-10 03:35:00,61.4,55.2,29.89,West,261,6.0,9.0,80,0.00,,,0.00,Wunderground v.1.13,2013-07-10 08:35:00,
2013-07-10 03:36:00,61.3,55.4,29.89,West,276,6.0,6.0,81,0.00,,,0.00,Wunderground v.1.13,2013-07-10 08:36:00,
2013-07-10 03:38:00,61.3,55.4,29.89,WSW,254,6.0,7.0,81,0.00,,,0.00,Wunderground v.1.13,2013-07-10 08:38:00,
2013-07-10 03:39:00,61.3,55.4,29.89,West,265,6.0,7.0,81,0.00,,,0.00,Wunderground v.1.13,2013-07-10 08:39:00,
2013-07-10 03:40:00,61.3,55.4,29.89,West,264,6.0,7.0,81,0.00,,,0.00,Wunderground v.1.13,2013-07-10 08:40:00,
2013-07-10 03:42:00,61.2,55.3,29.89,West,273,6.0,6.0,81,0.00,,,0.00,Wunderground v.1.13,2013-07-10 08:42:00,
2013-07-10 03:44:00,61.2,55.3,29.89,West,261,6.0,6.0,81,0.00,,,0.00,Wunderground v.1.13,2013-07-10 08:44:00,
2013-07-10 03:46:00,61.1,55.2,29.89,West,274,6.0,6.0,81,0.00,,,0.00,Wunderground v.1.13,2013-07-10 08:46:00,
2013-07-10 03:47:00,61.1,55.2,29.89,West,259,6.0,6.0,81,0.00,,,0.00,Wunderground v.1.13,2013-07-10 08:47:00,
2013-07-10 03:49:00,61.1,55.2,29.90,West,275,6.0,7.0,81,0.00,,,0.00,Wunderground v.1.13,2013-07-10 08:49:00,
2013-07-10 03:51:00,61.0,55.1,29.90,West,272,6.0,6.0,81,0.00,,,0.00,Wunderground v.1.13,2013-07-10 08:51:00,
2013-07-10 03:52:00,61.0,55.1,29.90,West,267,6.0,6.0,81,0.00,,,0.00,Wunderground v.1.13,2013-07-10 08:52:00,
2013-07-10 03:53:00,61.0,55.5,29.90,WSW,257,6.0,6.0,82,0.00,,,0.00,Wunderground v.1.13,2013-07-10 08:53:00,
2013-07-10 03:54:00,60.9,55.4,29.90,West,277,6.0,6.0,82,0.00,,,0.00,Wunderground v.1.13,2013-07-10 08:54:00,
2013-07-10 03:55:00,60.9,55.4,29.90,West,270,6.0,6.0,82,0.00,,,0.00,Wunderground v.1.13,2013-07-10 08:55:00,
2013-07-10 03:57:00,60.9,55.4,29.90,West,281,6.0,8.0,82,0.00,,,0.00,Wunderground v.1.13,2013-07-10 08:57:00,
2013-07-10 03:58:00,60.8,55.3,29.90,West,260,5.0,8.0,82,0.00,,,0.00,Wunderground v.1.13,2013-07-10 08:58:00,
2013-07-10 04:01:00,60.8,55.3,29.90,West,269,5.0,6.0,82,0.00,,,0.00,Wunderground v.1.13,2013-07-10 09:01:00,
2013-07-10 04:02:00,60.7,55.2,29.90,WSW,250,6.0,7.0,82,0.00,,,0.00,Wunderground v.1.13,2013-07-10 09:02:00,
2013-07-10 04:05:00,60.7,55.5,29.90,West,259,6.0,6.0,83,0.00,,,0.00,Wunderground v.1.13,2013-07-10 09:05:00,
2013-07-10 04:06:00,60.7,55.5,29.90,WSW,242,6.0,7.0,83,0.00,,,0.00,Wunderground v.1.13,2013-07-10 09:06:00,
2013-07-10 04:07:00,60.6,55.4,29.90,West,259,6.0,7.0,83,0.00,,,0.00,Wunderground v.1.13,2013-07-10 09:07:00,
2013-07-10 04:09:00,60.6,55.4,29.90,West,272,6.0,7.0,83,0.00,,,0.00,Wunderground v.1.13,2013-07-10 09:09:00,
2013-07-10 04:11:00,60.5,55.3,29.90,West,268,6.0,7.0,83,0.00,,,0.00,Wunderground v.1.13,2013-07-10 09:11:00,
2013-07-10 04:14:00,60.4,55.2,29.91,WSW,256,6.0,7.0,83,0.00,,,0.00,Wunderground v.1.13,2013-07-10 09:14:00,
2013-07-10 04:15:00,60.4,55.2,29.90,West,265,6.0,6.0,83,0.00,,,0.00,Wunderground v.1.13,2013-07-10 09:15:00,
2013-07-10 04:16:00,60.4,55.2,29.91,West,277,6.0,6.0,83,0.00,,,0.00,Wunderground v.1.13,2013-07-10 09:16:00,
2013-07-10 04:17:00,60.3,55.1,29.91,WSW,248,5.0,7.0,83,0.00,,,0.00,Wunderground v.1.13,2013-07-10 09:17:00,
2013-07-10 04:20:00,60.3,55.4,29.91,West,275,5.0,5.0,84,0.00,,,0.00,Wunderground v.1.13,2013-07-10 09:20:00,
2013-07-10 04:21:00,60.2,55.3,29.91,WSW,244,5.0,5.0,84,0.00,,,0.00,Wunderground v.1.13,2013-07-10 09:21:00,
2013-07-10 04:22:00,60.2,55.3,29.91,West,263,5.0,5.0,84,0.00,,,0.00,Wunderground v.1.13,2013-07-10 09:22:00,
2013-07-10 04:23:00,60.2,55.3,29.91,WSW,245,5.0,7.0,84,0.00,,,0.00,Wunderground v.1.13,2013-07-10 09:23:00,
2013-07-10 04:24:00,60.1,55.2,29.91,West,272,5.0,7.0,84,0.00,,,0.00,Wunderground v.1.13,2013-07-10 09:24:00,
2013-07-10 04:27:00,60.0,55.2,29.91,West,265,5.0,10.0,84,0.00,,,0.00,Wunderground v.1.13,2013-07-10 09:27:00,
2013-07-10 04:28:00,60.0,55.2,29.91,West,275,6.0,10.0,84,0.00,,,0.00,Wunderground v.1.13,2013-07-10 09:28:00,
2013-07-10 04:29:00,60.0,55.2,29.91,West,263,6.0,10.0,84,0.00,,,0.00,Wunderground v.1.13,2013-07-10 09:29:00,
2013-07-10 04:31:00,59.9,55.1,29.91,West,268,6.0,7.0,84,0.00,,,0.00,Wunderground v.1.13,2013-07-10 09:31:00,
2013-07-10 04:34:00,59.9,55.1,29.91,West,263,6.0,7.0,84,0.00,,,0.00,Wunderground v.1.13,2013-07-10 09:34:00,
2013-07-10 04:37:00,59.8,55.0,29.91,West,268,6.0,7.0,84,0.00,,,0.00,Wunderground v.1.13,2013-07-10 09:37:00,
2013-07-10 04:39:00,59.7,54.9,29.91,WSW,250,6.0,7.0,84,0.00,,,0.00,Wunderground v.1.13,2013-07-10 09:39:00,
2013-07-10 04:40:00,59.7,54.9,29.91,WSW,252,6.0,7.0,84,0.00,,,0.00,Wunderground v.1.13,2013-07-10 09:40:00,
2013-07-10 04:44:00,59.6,54.8,29.91,West,262,5.0,7.0,84,0.00,,,0.00,Wunderground v.1.13,2013-07-10 09:44:00,
2013-07-10 04:46:00,59.4,54.9,29.91,West,259,5.0,5.0,85,0.00,,,0.00,Wunderground v.1.13,2013-07-10 09:46:00,
2013-07-10 04:47:00,59.4,54.9,29.91,West,260,5.0,5.0,85,0.00,,,0.00,Wunderground v.1.13,2013-07-10 09:47:00,
2013-07-10 04:48:00,59.4,54.9,29.91,West,264,5.0,5.0,85,0.00,,,0.00,Wunderground v.1.13,2013-07-10 09:48:00,
2013-07-10 04:51:00,59.4,54.9,29.91,West,268,5.0,5.0,85,0.00,,,0.00,Wunderground v.1.13,2013-07-10 09:51:00,
2013-07-10 04:53:00,59.4,54.9,29.91,SW,236,5.0,7.0,85,0.00,,,0.00,Wunderground v.1.13,2013-07-10 09:53:00,
2013-07-10 04:54:00,59.4,54.9,29.91,WSW,257,5.0,7.0,85,0.00,,,0.00,Wunderground v.1.13,2013-07-10 09:54:00,
2013-07-10 04:55:00,59.4,54.9,29.91,West,260,5.0,7.0,85,0.00,,,0.00,Wunderground v.1.13,2013-07-10 09:55:00,
2013-07-10 04:56:00,59.4,54.9,29.91,West,260,5.0,5.0,85,0.00,,,0.00,Wunderground v.1.13,2013-07-10 09:56:00,
2013-07-10 04:59:00,59.4,54.9,29.91,WSW,256,4.0,5.0,85,0.00,,,0.00,Wunderground v.1.13,2013-07-10 09:59:00,
2013-07-10 05:00:00,59.4,54.9,29.91,WSW,256,4.0,4.0,85,0.00,,,0.00,Wunderground v.1.13,2013-07-10 10:00:00,
2013-07-10 05:02:00,59.4,54.9,29.91,West,259,4.0,4.0,85,0.00,,,0.00,Wunderground v.1.13,2013-07-10 10:02:00,
2013-07-10 05:03:00,59.3,54.8,29.91,West,262,4.0,6.0,85,0.00,,,0.00,Wunderground v.1.13,2013-07-10 10:03:00,
2013-07-10 05:06:00,59.1,54.9,29.91,West,268,4.0,4.0,86,0.00,,,0.00,Wunderground v.1.13,2013-07-10 10:06:00,
2013-07-10 05:07:00,59.1,54.9,29.91,West,268,4.0,4.0,86,0.00,,,0.00,Wunderground v.1.13,2013-07-10 10:07:00,
2013-07-10 05:09:00,59.1,54.9,29.91,West,268,3.0,4.0,86,0.00,,,0.00,Wunderground v.1.13,2013-07-10 10:09:00,
2013-07-10 05:11:00,59.0,54.8,29.91,West,268,3.0,4.0,86,0.00,,,0.00,Wunderground v.1.13,2013-07-10 10:11:00,
2013-07-10 05:12:00,59.0,54.8,29.91,West,268,3.0,4.0,86,0.00,,,0.00,Wunderground v.1.13,2013-07-10 10:12:00,
2013-07-10 05:14:00,58.9,54.7,29.91,West,268,3.0,4.0,86,0.00,,,0.00,Wunderground v.1.13,2013-07-10 10:14:00,
2013-07-10 05:15:00,58.9,54.7,29.91,West,268,2.0,4.0,86,0.00,,,0.00,Wunderground v.1.13,2013-07-10 10:15:00,
2013-07-10 05:16:00,58.9,54.7,29.91,West,268,2.0,4.0,86,0.00,,,0.00,Wunderground v.1.13,2013-07-10 10:16:00,
2013-07-10 05:19:00,58.8,54.6,29.92,West,268,3.0,4.0,86,0.00,,,0.00,Wunderground v.1.13,2013-07-10 10:19:00,
2013-07-10 05:21:00,58.8,54.6,29.92,West,275,3.0,5.0,86,0.00,,,0.00,Wunderground v.1.13,2013-07-10 10:21:00,
2013-07-10 05:23:00,58.8,54.6,29.92,West,275,3.0,5.0,86,0.00,,,0.00,Wunderground v.1.13,2013-07-10 10:23:00,
2013-07-10 05:25:00,58.8,54.6,29.92,WNW,286,4.0,4.0,86,0.00,,,0.00,Wunderground v.1.13,2013-07-10 10:25:00,
2013-07-10 05:27:00,58.8,54.6,29.92,WNW,286,4.0,4.0,86,0.00,,,0.00,Wunderground v.1.13,2013-07-10 10:27:00,
2013-07-10 05:28:00,58.7,54.5,29.92,WNW,286,4.0,4.0,86,0.00,,,0.00,Wunderground v.1.13,2013-07-10 10:28:00,
2013-07-10 05:29:00,58.7,54.5,29.92,West,279,4.0,5.0,86,0.00,,,0.00,Wunderground v.1.13,2013-07-10 10:29:00,
2013-07-10 05:34:00,58.7,54.8,29.92,West,272,3.0,6.0,87,0.00,,,0.00,Wunderground v.1.13,2013-07-10 10:34:00,
2013-07-10 05:35:00,58.7,54.8,29.92,West,272,3.0,6.0,87,0.00,,,0.00,Wunderground v.1.13,2013-07-10 10:35:00,
2013-07-10 05:37:00,58.7,54.8,29.92,West,275,3.0,4.0,87,0.00,,,0.00,Wunderground v.1.13,2013-07-10 10:37:00,
2013-07-10 05:40:00,58.6,54.7,29.92,West,275,3.0,4.0,87,0.00,,,0.00,Wunderground v.1.13,2013-07-10 10:40:00,
2013-07-10 05:41:00,58.6,54.7,29.92,West,275,3.0,4.0,87,0.00,,,0.00,Wunderground v.1.13,2013-07-10 10:41:00,
2013-07-10 05:42:00,58.6,54.7,29.92,West,275,3.0,4.0,87,0.00,,,0.00,Wunderground v.1.13,2013-07-10 10:42:00,
2013-07-10 05:43:00,58.6,54.7,29.92,West,275,3.0,4.0,87,0.00,,,0.00,Wunderground v.1.13,2013-07-10 10:43:00,
2013-07-10 05:45:00,58.6,54.7,29.92,West,275,3.0,4.0,87,0.00,,,0.00,Wunderground v.1.13,2013-07-10 10:45:00,
2013-07-10 05:46:00,58.6,54.7,29.93,West,259,3.0,6.0,87,0.00,,,0.00,Wunderground v.1.13,2013-07-10 10:46:00,
2013-07-10 05:48:00,58.6,54.7,29.92,West,273,3.0,6.0,87,0.00,,,0.00,Wunderground v.1.13,2013-07-10 10:48:00,
2013-07-10 05:49:00,58.6,54.7,29.92,West,276,3.0,6.0,87,0.00,,,0.00,Wunderground v.1.13,2013-07-10 10:49:00,
2013-07-10 05:52:00,58.6,54.7,29.92,West,263,4.0,4.0,87,0.00,,,0.00,Wunderground v.1.13,2013-07-10 10:52:00,
2013-07-10 05:55:00,58.6,54.7,29.92,West,263,4.0,4.0,87,0.00,,,0.00,Wunderground v.1.13,2013-07-10 10:55:00,
2013-07-10 05:56:00,58.6,54.7,29.92,West,261,4.0,7.0,87,0.00,,,0.00,Wunderground v.1.13,2013-07-10 10:56:00,
2013-07-10 05:57:00,58.5,54.6,29.93,West,263,4.0,7.0,87,0.00,,,0.00,Wunderground v.1.13,2013-07-10 10:57:00,
2013-07-10 06:01:00,58.5,54.6,29.93,West,266,3.0,4.0,87,0.00,,,0.00,Wunderground v.1.13,2013-07-10 11:01:00,
2013-07-10 06:02:00,58.5,54.6,29.93,West,276,3.0,5.0,87,0.00,,,0.00,Wunderground v.1.13,2013-07-10 11:02:00,
2013-07-10 06:04:00,58.5,54.6,29.93,West,271,3.0,5.0,87,0.00,,,0.00,Wunderground v.1.13,2013-07-10 11:04:00,
2013-07-10 06:06:00,58.5,54.6,29.93,West,267,4.0,5.0,87,0.00,,,0.00,Wunderground v.1.13,2013-07-10 11:06:00,
2013-07-10 06:07:00,58.5,54.6,29.93,West,273,3.0,5.0,87,0.00,,,0.00,Wunderground v.1.13,2013-07-10 11:07:00,
2013-07-10 06:09:00,58.6,54.7,29.93,West,267,4.0,6.0,87,0.00,,,0.00,Wunderground v.1.13,2013-07-10 11:09:00,
2013-07-10 06:13:00,58.7,54.8,29.93,West,261,4.0,6.0,87,0.00,,,0.00,Wunderground v.1.13,2013-07-10 11:13:00,
2013-07-10 06:15:00,58.7,54.8,29.93,West,272,4.0,4.0,87,0.00,,,0.00,Wunderground v.1.13,2013-07-10 11:15:00,
2013-07-10 06:17:00,58.7,54.8,29.93,West,261,4.0,4.0,87,0.00,,,0.00,Wunderground v.1.13,2013-07-10 11:17:00,
2013-07-10 06:19:00,58.8,54.9,29.93,West,263,4.0,8.0,87,0.00,,,0.00,Wunderground v.1.13,2013-07-10 11:19:00,
2013-07-10 06:22:00,58.9,55.0,29.93,West,265,4.0,5.0,87,0.00,,,0.00,Wunderground v.1.13,2013-07-10 11:22:00,
2013-07-10 06:23:00,58.9,55.0,29.93,WSW,252,4.0,5.0,87,0.00,,,0.00,Wunderground v.1.13,2013-07-10 11:23:00,
2013-07-10 06:26:00,59.0,55.1,29.94,West,267,5.0,7.0,87,0.00,,,0.00,Wunderground v.1.13,2013-07-10 11:26:00,
2013-07-10 06:28:00,59.1,55.2,29.94,WSW,254,5.0,7.0,87,0.00,,,0.00,Wunderground v.1.13,2013-07-10 11:28:00,
2013-07-10 06:29:00,59.1,55.2,29.94,West,259,5.0,7.0,87,0.00,,,0.00,Wunderground v.1.13,2013-07-10 11:29:00,
2013-07-10 06:33:00,59.3,55.4,29.94,West,265,5.0,6.0,87,0.00,,,0.00,Wunderground v.1.13,2013-07-10 11:33:00,
2013-07-10 06:34:00,59.3,55.4,29.94,West,261,5.0,6.0,87,0.00,,,0.00,Wunderground v.1.13,2013-07-10 11:34:00,
2013-07-10 06:35:00,59.4,55.5,29.94,West,261,5.0,5.0,87,0.00,,,0.00,Wunderground v.1.13,2013-07-10 11:35:00,
2013-07-10 06:36:00,59.4,55.5,29.94,WSW,257,5.0,8.0,87,0.00,,,0.00,Wunderground v.1.13,2013-07-10 11:36:00,
2013-07-10 06:38:00,59.4,56.2,29.94,West,267,5.0,8.0,89,0.00,,,0.00,Wunderground v.1.13,2013-07-10 11:38:00,
2013-07-10 06:40:00,59.4,55.5,29.94,WSW,252,5.0,7.0,87,0.00,,,0.00,Wunderground v.1.13,2013-07-10 11:40:00,
2013-07-10 06:42:00,59.4,55.5,29.94,West,274,5.0,10.0,87,0.00,,,0.00,Wunderground v.1.13,2013-07-10 11:42:00,
2013-07-10 06:44:00,59.4,55.2,29.94,West,276,6.0,10.0,86,0.00,,,0.00,Wunderground v.1.13,2013-07-10 11:44:00,
2013-07-10 06:45:00,59.4,55.2,29.94,West,263,6.0,6.0,86,0.00,,,0.00,Wunderground v.1.13,2013-07-10 11:45:00,
2013-07-10 06:49:00,59.4,55.2,29.94,West,260,6.0,9.0,86,0.00,,,0.00,Wunderground v.1.13,2013-07-10 11:49:00,
2013-07-10 06:52:00,59.4,55.2,29.94,West,271,5.0,7.0,86,0.00,,,0.00,Wunderground v.1.13,2013-07-10 11:52:00,
2013-07-10 06:54:00,59.4,55.2,29.94,West,271,5.0,8.0,86,0.00,,,0.00,Wunderground v.1.13,2013-07-10 11:54:00,
2013-07-10 06:55:00,59.4,55.2,29.94,West,272,5.0,8.0,86,0.00,,,0.00,Wunderground v.1.13,2013-07-10 11:55:00,
2013-07-10 06:57:00,59.4,55.2,29.94,West,274,5.0,8.0,86,0.00,,,0.00,Wunderground v.1.13,2013-07-10 11:57:00,
2013-07-10 06:58:00,59.4,55.2,29.94,West,259,6.0,9.0,86,0.00,,,0.00,Wunderground v.1.13,2013-07-10 11:58:00,
2013-07-10 07:00:00,59.4,55.2,29.94,WNW,288,6.0,7.0,86,0.00,,,0.00,Wunderground v.1.13,2013-07-10 12:00:00,
2013-07-10 07:01:00,59.4,55.2,29.94,WNW,292,6.0,7.0,86,0.00,,,0.00,Wunderground v.1.13,2013-07-10 12:01:00,
2013-07-10 07:03:00,59.4,55.2,29.94,West,281,6.0,7.0,86,0.00,,,0.00,Wunderground v.1.13,2013-07-10 12:03:00,
2013-07-10 07:06:00,59.4,54.9,29.94,West,265,5.0,6.0,85,0.00,,,0.00,Wunderground v.1.13,2013-07-10 12:06:00,
2013-07-10 07:07:00,59.4,54.9,29.94,West,265,5.0,6.0,85,0.00,,,0.00,Wunderground v.1.13,2013-07-10 12:07:00,
2013-07-10 07:08:00,59.4,54.9,29.94,WNW,292,5.0,6.0,85,0.00,,,0.00,Wunderground v.1.13,2013-07-10 12:08:00,
2013-07-10 07:09:00,59.4,54.9,29.94,West,271,5.0,6.0,85,0.00,,,0.00,Wunderground v.1.13,2013-07-10 12:09:00,
2013-07-10 07:11:00,59.5,55.0,29.94,West,267,5.0,6.0,85,0.00,,,0.00,Wunderground v.1.13,2013-07-10 12:11:00,
2013-07-10 07:12:00,59.7,55.2,29.94,West,261,5.0,6.0,85,0.00,,,0.00,Wunderground v.1.13,2013-07-10 12:12:00,
2013-07-10 07:14:00,59.8,55.3,29.95,West,267,6.0,6.0,85,0.00,,,0.00,Wunderground v.1.13,2013-07-10 12:14:00,
2013-07-10 07:16:00,59.9,55.4,29.95,WSW,256,5.0,6.0,85,0.00,,,0.00,Wunderground v.1.13,2013-07-10 12:16:00,
2013-07-10 07:17:00,60.0,55.5,29.94,WSW,257,5.0,6.0,85,0.00,,,0.00,Wunderground v.1.13,2013-07-10 12:17:00,
2013-07-10 07:19:00,60.2,55.7,29.94,West,265,5.0,6.0,85,0.00,,,0.00,Wunderground v.1.13,2013-07-10 12:19:00,
2013-07-10 07:20:00,60.2,55.7,29.95,West,277,5.0,5.0,85,0.00,,,0.00,Wunderground v.1.13,2013-07-10 12:20:00,
2013-07-10 07:23:00,60.5,55.6,29.95,West,276,5.0,6.0,84,0.00,,,0.00,Wunderground v.1.13,2013-07-10 12:23:00,
2013-07-10 07:26:00,60.7,55.8,29.95,WSW,258,5.0,6.0,84,0.00,,,0.00,Wunderground v.1.13,2013-07-10 12:26:00,
2013-07-10 07:28:00,60.8,55.9,29.94,West,271,5.0,6.0,84,0.00,,,0.00,Wunderground v.1.13,2013-07-10 12:28:00,
2013-07-10 07:29:00,60.9,56.0,29.94,WSW,256,5.0,7.0,84,0.00,,,0.00,Wunderground v.1.13,2013-07-10 12:29:00,
2013-07-10 07:31:00,61.0,56.1,29.94,West,277,5.0,7.0,84,0.00,,,0.00,Wunderground v.1.13,2013-07-10 12:31:00,
2013-07-10 07:32:00,61.0,55.8,29.94,West,271,6.0,7.0,83,0.00,,,0.00,Wunderground v.1.13,2013-07-10 12:32:00,
2013-07-10 07:33:00,61.1,55.9,29.94,West,270,5.0,7.0,83,0.00,,,0.00,Wunderground v.1.13,2013-07-10 12:33:00,
2013-07-10 07:36:00,61.3,56.1,29.95,West,276,5.0,7.0,83,0.00,,,0.00,Wunderground v.1.13,2013-07-10 12:36:00,
2013-07-10 07:39:00,61.3,55.8,29.95,WSW,248,6.0,7.0,82,0.00,,,0.00,Wunderground v.1.13,2013-07-10 12:39:00,
2013-07-10 07:40:00,61.4,55.9,29.95,West,269,6.0,7.0,82,0.00,,,0.00,Wunderground v.1.13,2013-07-10 12:40:00,
2013-07-10 07:42:00,61.4,55.9,29.95,West,268,6.0,7.0,82,0.00,,,0.00,Wunderground v.1.13,2013-07-10 12:42:00,
2013-07-10 07:45:00,61.5,56.0,29.95,West,271,6.0,7.0,82,0.00,,,0.00,Wunderground v.1.13,2013-07-10 12:45:00,
2013-07-10 07:46:00,61.6,56.0,29.95,West,263,6.0,7.0,82,0.00,,,0.00,Wunderground v.1.13,2013-07-10 12:46:00,
2013-07-10 07:48:00,61.7,56.1,29.95,West,259,6.0,7.0,82,0.00,,,0.00,Wunderground v.1.13,2013-07-10 12:48:00,
2013-07-10 07:52:00,61.9,56.0,29.95,West,270,5.0,8.0,81,0.00,,,0.00,Wunderground v.1.13,2013-07-10 12:52:00,
2013-07-10 07:53:00,62.0,56.1,29.95,West,260,5.0,8.0,81,0.00,,,0.00,Wunderground v.1.13,2013-07-10 12:53:00,
2013-07-10 07:54:00,62.1,56.2,29.95,West,265,5.0,8.0,81,0.00,,,0.00,Wunderground v.1.13,2013-07-10 12:54:00,
2013-07-10 07:59:00,62.3,56.0,29.95,West,271,6.0,9.0,80,0.00,,,0.00,Wunderground v.1.13,2013-07-10 12:59:00,
2013-07-10 08:00:00,62.4,56.1,29.95,West,279,6.0,6.0,80,0.00,,,0.00,Wunderground v.1.13,2013-07-10 13:00:00,
2013-07-10 08:01:00,62.4,56.1,29.95,West,269,6.0,10.0,80,0.00,,,0.00,Wunderground v.1.13,2013-07-10 13:01:00,
2013-07-10 08:02:00,62.4,56.1,29.95,West,267,6.0,10.0,80,0.00,,,0.00,Wunderground v.1.13,2013-07-10 13:02:00,
2013-07-10 08:05:00,62.7,56.8,29.95,WSW,254,6.0,6.0,81,0.00,,,0.00,Wunderground v.1.13,2013-07-10 13:05:00,
2013-07-10 08:06:00,62.7,56.4,29.95,WSW,253,6.0,6.0,80,0.00,,,0.00,Wunderground v.1.13,2013-07-10 13:06:00,
2013-07-10 08:08:00,62.9,56.6,29.95,WSW,254,6.0,6.0,80,0.00,,,0.00,Wunderground v.1.13,2013-07-10 13:08:00,
2013-07-10 08:10:00,63.0,56.4,29.95,SW,222,6.0,6.0,79,0.00,,,0.00,Wunderground v.1.13,2013-07-10 13:10:00,
2013-07-10 08:11:00,63.1,56.5,29.95,West,269,6.0,6.0,79,0.00,,,0.00,Wunderground v.1.13,2013-07-10 13:11:00,
2013-07-10 08:13:00,63.2,56.6,29.95,WNW,283,6.0,7.0,79,0.00,,,0.00,Wunderground v.1.13,2013-07-10 13:13:00,
2013-07-10 08:15:00,63.3,56.7,29.95,West,265,6.0,6.0,79,0.00,,,0.00,Wunderground v.1.13,2013-07-10 13:15:00,
2013-07-10 08:16:00,63.4,56.8,29.95,West,267,5.0,7.0,79,0.00,,,0.00,Wunderground v.1.13,2013-07-10 13:16:00,
2013-07-10 08:17:00,63.5,56.9,29.95,West,269,5.0,7.0,79,0.00,,,0.00,Wunderground v.1.13,2013-07-10 13:17:00,
2013-07-10 08:18:00,63.5,56.9,29.95,West,267,5.0,7.0,79,0.00,,,0.00,Wunderground v.1.13,2013-07-10 13:18:00,
2013-07-10 08:22:00,63.6,56.6,29.96,West,273,6.0,6.0,78,0.00,,,0.00,Wunderground v.1.13,2013-07-10 13:22:00,
2013-07-10 08:23:00,63.6,57.0,29.96,WSW,254,6.0,6.0,79,0.00,,,0.00,Wunderground v.1.13,2013-07-10 13:23:00,
2013-07-10 08:24:00,63.6,56.6,29.95,WNW,283,6.0,7.0,78,0.00,,,0.00,Wunderground v.1.13,2013-07-10 13:24:00,
2013-07-10 08:25:00,63.6,56.6,29.96,West,281,6.0,7.0,78,0.00,,,0.00,Wunderground v.1.13,2013-07-10 13:25:00,
2013-07-10 08:27:00,63.7,56.7,29.96,West,276,6.0,9.0,78,0.00,,,0.00,Wunderground v.1.13,2013-07-10 13:27:00,
2013-07-10 08:29:00,63.8,56.4,29.96,West,261,7.0,9.0,77,0.00,,,0.00,Wunderground v.1.13,2013-07-10 13:29:00,
2013-07-10 08:31:00,63.8,56.4,29.96,WSW,254,7.0,7.0,77,0.00,,,0.00,Wunderground v.1.13,2013-07-10 13:31:00,
2013-07-10 08:32:00,63.9,56.5,29.96,West,263,7.0,8.0,77,0.00,,,0.00,Wunderground v.1.13,2013-07-10 13:32:00,
2013-07-10 08:36:00,64.0,56.6,29.96,West,272,7.0,7.0,77,0.00,,,0.00,Wunderground v.1.13,2013-07-10 13:36:00,
2013-07-10 08:37:00,64.1,56.7,29.95,West,260,7.0,10.0,77,0.00,,,0.00,Wunderground v.1.13,2013-07-10 13:37:00,
2013-07-10 08:38:00,64.1,56.4,29.96,NW,325,7.0,10.0,76,0.00,,,0.00,Wunderground v.1.13,2013-07-10 13:38:00,
2013-07-10 08:40:00,64.2,56.8,29.96,West,277,6.0,10.0,77,0.00,,,0.00,Wunderground v.1.13,2013-07-10 13:40:00,
2013-07-10 08:42:00,64.4,57.0,29.96,WSW,248,6.0,7.0,77,0.00,,,0.00,Wunderground v.1.13,2013-07-10 13:42:00,
2013-07-10 08:46:00,64.7,57.0,29.95,WNW,295,6.0,6.0,76,0.00,,,0.00,Wunderground v.1.13,2013-07-10 13:46:00,
2013-07-10 08:47:00,64.7,57.0,29.95,West,271,6.0,7.0,76,0.00,,,0.00,Wunderground v.1.13,2013-07-10 13:47:00,
2013-07-10 08:49:00,64.8,56.7,29.95,WSW,254,6.0,7.0,75,0.00,,,0.00,Wunderground v.1.13,2013-07-10 13:49:00,
2013-07-10 08:52:00,65.0,57.2,29.95,WNW,285,5.0,6.0,76,0.00,,,0.00,Wunderground v.1.13,2013-07-10 13:52:00,
2013-07-10 08:55:00,65.2,57.4,29.96,West,259,5.0,6.0,76,0.00,,,0.00,Wunderground v.1.13,2013-07-10 13:55:00,
2013-07-10 08:56:00,65.3,57.5,29.95,West,263,5.0,5.0,76,0.00,,,0.00,Wunderground v.1.13,2013-07-10 13:56:00,
2013-07-10 08:57:00,65.4,57.3,29.95,NW,306,5.0,5.0,75,0.00,,,0.00,Wunderground v.1.13,2013-07-10 13:57:00,
2013-07-10 08:58:00,65.5,57.4,29.95,West,271,4.0,5.0,75,0.00,,,0.00,Wunderground v.1.13,2013-07-10 13:58:00,
2013-07-10 09:02:00,65.8,57.7,29.96,WSW,256,4.0,8.0,75,0.00,,,0.00,Wunderground v.1.13,2013-07-10 14:02:00,
2013-07-10 09:03:00,65.8,57.3,29.96,WSW,243,5.0,8.0,74,0.00,,,0.00,Wunderground v.1.13,2013-07-10 14:03:00,
2013-07-10 09:04:00,65.8,57.3,29.96,West,266,5.0,8.0,74,0.00,,,0.00,Wunderground v.1.13,2013-07-10 14:04:00,
2013-07-10 09:07:00,66.0,57.8,29.96,WSW,255,5.0,5.0,75,0.00,,,0.00,Wunderground v.1.13,2013-07-10 14:07:00,
2013-07-10 09:08:00,66.0,57.8,29.96,WSW,243,5.0,6.0,75,0.00,,,0.00,Wunderground v.1.13,2013-07-10 14:08:00,
2013-07-10 09:09:00,66.1,57.2,29.96,WSW,246,6.0,6.0,73,0.00,,,0.00,Wunderground v.1.13,2013-07-10 14:09:00,
2013-07-10 09:11:00,66.2,57.7,29.96,WSW,244,6.0,6.0,74,0.00,,,0.00,Wunderground v.1.13,2013-07-10 14:11:00,
2013-07-10 09:12:00,66.2,57.7,29.96,West,262,6.0,7.0,74,0.00,,,0.00,Wunderground v.1.13,2013-07-10 14:12:00,
2013-07-10 09:13:00,66.3,57.8,29.96,WSW,254,6.0,7.0,74,0.00,,,0.00,Wunderground v.1.13,2013-07-10 14:13:00,
2013-07-10 09:14:00,66.3,57.4,29.96,NW,310,6.0,7.0,73,0.00,,,0.00,Wunderground v.1.13,2013-07-10 14:14:00,
2013-07-10 09:17:00,66.4,57.5,29.96,West,259,7.0,10.0,73,0.00,,,0.00,Wunderground v.1.13,2013-07-10 14:17:00,
2013-07-10 09:18:00,66.3,57.0,29.96,West,276,7.0,10.0,72,0.00,,,0.00,Wunderground v.1.13,2013-07-10 14:18:00,
2013-07-10 09:21:00,66.3,57.4,29.96,WNW,289,7.0,7.0,73,0.00,,,0.00,Wunderground v.1.13,2013-07-10 14:21:00,
2013-07-10 09:22:00,66.3,57.4,29.96,WSW,244,8.0,8.0,73,0.00,,,0.00,Wunderground v.1.13,2013-07-10 14:22:00,
2013-07-10 09:23:00,66.4,57.5,29.96,West,272,8.0,8.0,73,0.00,,,0.00,Wunderground v.1.13,2013-07-10 14:23:00,
2013-07-10 09:24:00,66.4,57.5,29.96,WSW,250,8.0,8.0,73,0.00,,,0.00,Wunderground v.1.13,2013-07-10 14:24:00,
2013-07-10 09:25:00,66.5,57.6,29.96,NW,323,8.0,8.0,73,0.00,,,0.00,Wunderground v.1.13,2013-07-10 14:25:00,
2013-07-10 09:29:00,66.9,57.6,29.96,West,279,5.0,13.0,72,0.00,,,0.00,Wunderground v.1.13,2013-07-10 14:29:00,
2013-07-10 09:31:00,67.2,58.2,29.96,NW,315,5.0,5.0,73,0.00,,,0.00,Wunderground v.1.13,2013-07-10 14:31:00,
2013-07-10 09:32:00,67.3,58.3,29.96,WSW,248,4.0,7.0,73,0.00,,,0.00,Wunderground v.1.13,2013-07-10 14:32:00,
2013-07-10 09:34:00,67.6,58.2,29.96,WSW,252,4.0,7.0,72,0.00,,,0.00,Wunderground v.1.13,2013-07-10 14:34:00,
2013-07-10 09:37:00,67.8,57.7,29.96,WNW,298,3.0,8.0,70,0.00,,,0.00,Wunderground v.1.13,2013-07-10 14:37:00,
2013-07-10 09:38:00,67.9,57.8,29.96,West,267,4.0,8.0,70,0.00,,,0.00,Wunderground v.1.13,2013-07-10 14:38:00,
2013-07-10 09:39:00,68.0,57.8,29.96,West,267,4.0,8.0,70,0.00,,,0.00,Wunderground v.1.13,2013-07-10 14:39:00,
2013-07-10 09:40:00,68.0,58.2,29.96,WNW,284,4.0,6.0,71,0.00,,,0.00,Wunderground v.1.13,2013-07-10 14:40:00,
2013-07-10 09:41:00,68.1,58.3,29.95,NW,306,4.0,8.0,71,0.00,,,0.00,Wunderground v.1.13,2013-07-10 14:41:00,
2013-07-10 09:42:00,68.1,58.7,29.95,WSW,257,5.0,8.0,72,0.00,,,0.00,Wunderground v.1.13,2013-07-10 14:42:00,
2013-07-10 09:44:00,68.2,58.0,29.95,West,280,5.0,8.0,70,0.00,,,0.00,Wunderground v.1.13,2013-07-10 14:44:00,
2013-07-10 09:47:00,68.4,58.2,29.96,SW,232,5.0,9.0,70,0.00,,,0.00,Wunderground v.1.13,2013-07-10 14:47:00,
2013-07-10 09:48:00,68.4,57.8,29.96,West,267,5.0,9.0,69,0.00,,,0.00,Wunderground v.1.13,2013-07-10 14:48:00,
2013-07-10 09:49:00,68.4,57.8,29.96,West,269,5.0,9.0,69,0.00,,,0.00,Wunderground v.1.13,2013-07-10 14:49:00,
2013-07-10 09:50:00,68.4,58.2,29.96,SW,236,5.0,6.0,70,0.00,,,0.00,Wunderground v.1.13,2013-07-10 14:50:00,
2013-07-10 09:52:00,68.3,57.7,29.96,NNW,346,6.0,8.0,69,0.00,,,0.00,Wunderground v.1.13,2013-07-10 14:52:00,
2013-07-10 09:53:00,68.3,57.3,29.96,WSW,251,6.0,8.0,68,0.00,,,0.00,Wunderground v.1.13,2013-07-10 14:53:00,
2013-07-10 09:55:00,68.3,57.7,29.96,West,276,6.0,6.0,69,0.00,,,0.00,Wunderground v.1.13,2013-07-10 14:55:00,
2013-07-10 09:56:00,68.3,57.3,29.96,West,267,6.0,6.0,68,0.00,,,0.00,Wunderground v.1.13,2013-07-10 14:56:00,
2013-07-10 09:59:00,68.4,57.4,29.96,NW,321,7.0,7.0,68,0.00,,,0.00,Wunderground v.1.13,2013-07-10 14:59:00,
2013-07-10 10:00:00,68.5,57.9,29.96,WNW,296,6.0,6.0,69,0.00,,,0.00,Wunderground v.1.13,2013-07-10 15:00:00,
2013-07-10 10:02:00,68.6,58.0,29.96,WSW,244,6.0,6.0,69,0.00,,,0.00,Wunderground v.1.13,2013-07-10 15:02:00,
2013-07-10 10:04:00,68.7,57.3,29.96,WSW,246,6.0,9.0,67,0.00,,,0.00,Wunderground v.1.13,2013-07-10 15:04:00,
2013-07-10 10:06:00,68.7,57.3,29.96,West,264,6.0,12.0,67,0.00,,,0.00,Wunderground v.1.13,2013-07-10 15:06:00,
2013-07-10 10:09:00,69.1,58.5,29.96,WSW,256,5.0,12.0,69,0.00,,,0.00,Wunderground v.1.13,2013-07-10 15:09:00,
2013-07-10 10:10:00,69.3,59.1,29.96,West,269,5.0,5.0,70,0.00,,,0.00,Wunderground v.1.13,2013-07-10 15:10:00,
2013-07-10 10:11:00,69.5,59.3,29.96,WNW,287,5.0,5.0,70,0.00,,,0.00,Wunderground v.1.13,2013-07-10 15:11:00,
2013-07-10 10:12:00,69.6,58.6,29.96,WSW,257,5.0,8.0,68,0.00,,,0.00,Wunderground v.1.13,2013-07-10 15:12:00,
2013-07-10 10:15:00,69.8,57.1,29.96,West,265,4.0,6.0,64,0.00,,,0.00,Wunderground v.1.13,2013-07-10 15:15:00,
2013-07-10 10:17:00,69.8,57.5,29.96,West,269,4.0,6.0,65,0.00,,,0.00,Wunderground v.1.13,2013-07-10 15:17:00,
2013-07-10 10:19:00,70.0,57.7,29.96,WNW,303,4.0,6.0,65,0.00,,,0.00,Wunderground v.1.13,2013-07-10 15:19:00,
2013-07-10 10:20:00,70.0,57.7,29.96,NE,52,5.0,5.0,65,0.00,,,0.00,Wunderground v.1.13,2013-07-10 15:20:00,
2013-07-10 10:24:00,70.2,57.4,29.96,West,269,5.0,9.0,64,0.00,,,0.00,Wunderground v.1.13,2013-07-10 15:24:00,
2013-07-10 10:26:00,70.1,57.4,29.96,WNW,286,5.0,7.0,64,0.00,,,0.00,Wunderground v.1.13,2013-07-10 15:26:00,
2013-07-10 10:28:00,70.1,57.8,29.96,West,265,5.0,7.0,65,0.00,,,0.00,Wunderground v.1.13,2013-07-10 15:28:00,
2013-07-10 10:30:00,70.1,57.8,29.96,WSW,250,6.0,8.0,65,0.00,,,0.00,Wunderground v.1.13,2013-07-10 15:30:00,
2013-07-10 10:34:00,70.2,57.0,29.96,WSW,241,7.0,10.0,63,0.00,,,0.00,Wunderground v.1.13,2013-07-10 15:34:00,
2013-07-10 10:36:00,70.2,57.0,29.96,West,261,6.0,7.0,63,0.00,,,0.00,Wunderground v.1.13,2013-07-10 15:36:00,
2013-07-10 10:37:00,70.3,57.5,29.96,West,261,6.0,7.0,64,0.00,,,0.00,Wunderground v.1.13,2013-07-10 15:37:00,
2013-07-10 10:40:00,70.7,57.9,29.96,North,350,5.0,5.0,64,0.00,,,0.00,Wunderground v.1.13,2013-07-10 15:40:00,
2013-07-10 10:41:00,70.9,57.7,29.96,WSW,253,5.0,5.0,63,0.00,,,0.00,Wunderground v.1.13,2013-07-10 15:41:00,
2013-07-10 10:42:00,71.0,57.8,29.96,WSW,248,4.0,5.0,63,0.00,,,0.00,Wunderground v.1.13,2013-07-10 15:42:00,
2013-07-10 10:44:00,71.1,56.5,29.96,West,261,4.0,8.0,60,0.00,,,0.00,Wunderground v.1.13,2013-07-10 15:44:00,
2013-07-10 10:46:00,71.2,56.1,29.96,WSW,255,4.0,7.0,59,0.00,,,0.00,Wunderground v.1.13,2013-07-10 15:46:00,
2013-07-10 10:47:00,71.3,56.2,29.96,West,261,5.0,7.0,59,0.00,,,0.00,Wunderground v.1.13,2013-07-10 15:47:00,
2013-07-10 10:50:00,71.6,57.0,29.96,West,279,5.0,6.0,60,0.00,,,0.00,Wunderground v.1.13,2013-07-10 15:50:00,
2013-07-10 10:51:00,71.7,56.1,29.96,WNW,291,5.0,6.0,58,0.00,,,0.00,Wunderground v.1.13,2013-07-10 15:51:00,
2013-07-10 10:52:00,71.7,56.1,29.96,WSW,256,5.0,8.0,58,0.00,,,0.00,Wunderground v.1.13,2013-07-10 15:52:00,
2013-07-10 10:53:00,71.8,56.2,29.96,NNW,343,5.0,8.0,58,0.00,,,0.00,Wunderground v.1.13,2013-07-10 15:53:00,
2013-07-10 10:57:00,72.0,56.4,29.96,WSW,257,4.0,5.0,58,0.00,,,0.00,Wunderground v.1.13,2013-07-10 15:57:00,
2013-07-10 10:58:00,72.1,57.0,29.96,WSW,246,4.0,5.0,59,0.00,,,0.00,Wunderground v.1.13,2013-07-10 15:58:00,
2013-07-10 10:59:00,72.2,57.5,29.96,WSW,254,4.0,5.0,60,0.00,,,0.00,Wunderground v.1.13,2013-07-10 15:59:00,
2013-07-10 11:01:00,72.3,57.2,29.96,WNW,302,4.0,6.0,59,0.00,,,0.00,Wunderground v.1.13,2013-07-10 16:01:00,
2013-07-10 11:03:00,72.3,56.2,29.96,NW,314,4.0,9.0,57,0.00,,,0.00,Wunderground v.1.13,2013-07-10 16:03:00,
2013-07-10 11:04:00,72.3,56.2,29.96,West,270,4.0,9.0,57,0.00,,,0.00,Wunderground v.1.13,2013-07-10 16:04:00,
2013-07-10 11:05:00,72.2,56.6,29.96,NW,310,4.0,9.0,58,0.00,,,0.00,Wunderground v.1.13,2013-07-10 16:05:00,
2013-07-10 11:07:00,72.2,57.1,29.96,West,275,5.0,9.0,59,0.00,,,0.00,Wunderground v.1.13,2013-07-10 16:07:00,
2013-07-10 11:09:00,72.1,56.0,29.96,WSW,250,6.0,11.0,57,0.00,,,0.00,Wunderground v.1.13,2013-07-10 16:09:00,
2013-07-10 11:10:00,71.9,55.8,29.96,WSW,253,6.0,7.0,57,0.00,,,0.00,Wunderground v.1.13,2013-07-10 16:10:00,
2013-07-10 11:11:00,71.8,56.2,29.96,West,277,7.0,7.0,58,0.00,,,0.00,Wunderground v.1.13,2013-07-10 16:11:00,
2013-07-10 11:14:00,72.0,57.4,29.96,WNW,300,6.0,7.0,60,0.00,,,0.00,Wunderground v.1.13,2013-07-10 16:14:00,
2013-07-10 11:16:00,72.1,55.0,29.96,WSW,244,7.0,14.0,55,0.00,,,0.00,Wunderground v.1.13,2013-07-10 16:16:00,
2013-07-10 11:17:00,72.0,54.9,29.96,WSW,257,7.0,14.0,55,0.00,,,0.00,Wunderground v.1.13,2013-07-10 16:17:00,
2013-07-10 11:20:00,72.1,56.5,29.96,WSW,254,6.0,6.0,58,0.00,,,0.00,Wunderground v.1.13,2013-07-10 16:20:00,
2013-07-10 11:21:00,72.2,56.1,29.96,WSW,250,6.0,8.0,57,0.00,,,0.00,Wunderground v.1.13,2013-07-10 16:21:00,
2013-07-10 11:23:00,72.3,56.2,29.96,WSW,254,6.0,8.0,57,0.00,,,0.00,Wunderground v.1.13,2013-07-10 16:23:00,
2013-07-10 11:27:00,72.5,56.9,29.96,West,276,5.0,8.0,58,0.00,,,0.00,Wunderground v.1.13,2013-07-10 16:27:00,
2013-07-10 11:28:00,72.6,56.5,29.96,West,281,5.0,9.0,57,0.00,,,0.00,Wunderground v.1.13,2013-07-10 16:28:00,
2013-07-10 11:29:00,72.6,56.0,29.96,WNW,299,6.0,9.0,56,0.00,,,0.00,Wunderground v.1.13,2013-07-10 16:29:00,
2013-07-10 11:31:00,72.6,56.0,29.96,WNW,286,6.0,6.0,56,0.00,,,0.00,Wunderground v.1.13,2013-07-10 16:31:00,
2013-07-10 11:32:00,72.7,56.1,29.96,West,268,6.0,8.0,56,0.00,,,0.00,Wunderground v.1.13,2013-07-10 16:32:00,
2013-07-10 11:34:00,72.8,56.2,29.96,WSW,256,6.0,8.0,56,0.00,,,0.00,Wunderground v.1.13,2013-07-10 16:34:00,
2013-07-10 11:36:00,72.9,55.8,29.96,WSW,246,6.0,7.0,55,0.00,,,0.00,Wunderground v.1.13,2013-07-10 16:36:00,
2013-07-10 11:37:00,72.9,56.3,29.96,WNW,287,6.0,7.0,56,0.00,,,0.00,Wunderground v.1.13,2013-07-10 16:37:00,
2013-07-10 11:38:00,73.0,56.4,29.96,WNW,292,6.0,7.0,56,0.00,,,0.00,Wunderground v.1.13,2013-07-10 16:38:00,
2013-07-10 11:41:00,73.2,56.6,29.96,WNW,303,5.0,5.0,56,0.00,,,0.00,Wunderground v.1.13,2013-07-10 16:41:00,
2013-07-10 11:42:00,73.4,57.2,29.96,WNW,284,4.0,5.0,57,0.00,,,0.00,Wunderground v.1.13,2013-07-10 16:42:00,
2013-07-10 11:43:00,73.5,56.8,29.96,WNW,294,4.0,5.0,56,0.00,,,0.00,Wunderground v.1.13,2013-07-10 16:43:00,
2013-07-10 11:44:00,73.6,57.4,29.96,NE,49,4.0,5.0,57,0.00,,,0.00,Wunderground v.1.13,2013-07-10 16:44:00,
2013-07-10 11:46:00,73.8,57.1,29.96,West,268,3.0,4.0,56,0.00,,,0.00,Wunderground v.1.13,2013-07-10 16:46:00,
2013-07-10 11:48:00,73.9,56.7,29.96,WNW,288,3.0,6.0,55,0.00,,,0.00,Wunderground v.1.13,2013-07-10 16:48:00,
2013-07-10 11:50:00,73.8,56.1,29.95,West,275,4.0,5.0,54,0.00,,,0.00,Wunderground v.1.13,2013-07-10 16:50:00,
2013-07-10 11:52:00,73.7,55.5,29.96,West,276,5.0,7.0,53,0.00,,,0.00,Wunderground v.1.13,2013-07-10 16:52:00,
2013-07-10 11:53:00,73.8,56.1,29.95,WNW,288,5.0,7.0,54,0.00,,,0.00,Wunderground v.1.13,2013-07-10 16:53:00,
2013-07-10 11:54:00,73.8,55.1,29.95,SW,236,5.0,14.0,52,0.00,,,0.00,Wunderground v.1.13,2013-07-10 16:54:00,
2013-07-10 11:57:00,73.6,54.4,29.95,WNW,288,7.0,10.0,51,0.00,,,0.00,Wunderground v.1.13,2013-07-10 16:57:00,
2013-07-10 11:58:00,73.7,55.0,29.96,West,260,7.0,10.0,52,0.00,,,0.00,Wunderground v.1.13,2013-07-10 16:58:00,
2013-07-10 12:02:00,73.9,54.6,29.96,WNW,302,6.0,8.0,51,0.00,,,0.00,Wunderground v.1.13,2013-07-10 17:02:00,
2013-07-10 12:03:00,74.0,54.7,29.96,West,278,6.0,8.0,51,0.00,,,0.00,Wunderground v.1.13,2013-07-10 17:03:00,
2013-07-10 12:04:00,74.0,55.3,29.96,North,9,6.0,8.0,52,0.00,,,0.00,Wunderground v.1.13,2013-07-10 17:04:00,
2013-07-10 12:05:00,74.1,55.3,29.96,NNW,334,5.0,5.0,52,0.00,,,0.00,Wunderground v.1.13,2013-07-10 17:05:00,
2013-07-10 12:07:00,74.3,55.0,29.96,NW,316,4.0,6.0,51,0.00,,,0.00,Wunderground v.1.13,2013-07-10 17:07:00,
2013-07-10 12:10:00,74.8,54.9,29.96,WSW,244,4.0,7.0,50,0.00,,,0.00,Wunderground v.1.13,2013-07-10 17:10:00,
2013-07-10 12:11:00,74.8,54.9,29.96,NNE,33,4.0,8.0,50,0.00,,,0.00,Wunderground v.1.13,2013-07-10 17:11:00,
2013-07-10 12:13:00,74.7,54.3,29.96,WSW,254,4.0,8.0,49,0.00,,,0.00,Wunderground v.1.13,2013-07-10 17:13:00,
2013-07-10 12:15:00,74.7,54.8,29.96,West,276,5.0,9.0,50,0.00,,,0.00,Wunderground v.1.13,2013-07-10 17:15:00,
2013-07-10 12:16:00,74.7,55.4,29.96,WSW,249,5.0,9.0,51,0.00,,,0.00,Wunderground v.1.13,2013-07-10 17:16:00,
2013-07-10 12:18:00,75.0,55.6,29.96,NW,317,5.0,9.0,51,0.00,,,0.00,Wunderground v.1.13,2013-07-10 17:18:00,
2013-07-10 12:20:00,75.2,54.7,29.95,WNW,290,5.0,5.0,49,0.00,,,0.00,Wunderground v.1.13,2013-07-10 17:20:00,
2013-07-10 12:23:00,75.2,53.6,29.96,West,267,5.0,10.0,47,0.00,,,0.00,Wunderground v.1.13,2013-07-10 17:23:00,
2013-07-10 12:26:00,75.1,54.1,29.96,West,271,5.0,6.0,48,0.00,,,0.00,Wunderground v.1.13,2013-07-10 17:26:00,
2013-07-10 12:29:00,75.2,53.6,29.96,WSW,245,5.0,10.0,47,0.00,,,0.00,Wunderground v.1.13,2013-07-10 17:29:00,
2013-07-10 12:31:00,75.0,54.0,29.96,West,262,6.0,6.0,48,0.00,,,0.00,Wunderground v.1.13,2013-07-10 17:31:00,
2013-07-10 12:32:00,74.9,55.0,29.96,West,273,6.0,6.0,50,0.00,,,0.00,Wunderground v.1.13,2013-07-10 17:32:00,
2013-07-10 12:36:00,75.2,54.2,29.95,West,273,6.0,10.0,48,0.00,,,0.00,Wunderground v.1.13,2013-07-10 17:36:00,
2013-07-10 12:38:00,75.0,53.4,29.95,West,259,7.0,15.0,47,0.00,,,0.00,Wunderground v.1.13,2013-07-10 17:38:00,
2013-07-10 12:42:00,74.8,54.4,29.95,West,273,8.0,12.0,49,0.00,,,0.00,Wunderground v.1.13,2013-07-10 17:42:00,
2013-07-10 12:43:00,74.8,53.8,29.95,WNW,289,8.0,12.0,48,0.00,,,0.00,Wunderground v.1.13,2013-07-10 17:43:00,
2013-07-10 12:44:00,74.8,53.8,29.96,WNW,282,8.0,12.0,48,0.00,,,0.00,Wunderground v.1.13,2013-07-10 17:44:00,
2013-07-10 12:45:00,74.9,54.4,29.96,WNW,294,8.0,8.0,49,0.00,,,0.00,Wunderground v.1.13,2013-07-10 17:45:00,
2013-07-10 12:47:00,75.0,54.0,29.95,NE,51,8.0,8.0,48,0.00,,,0.00,Wunderground v.1.13,2013-07-10 17:47:00,
2013-07-10 12:50:00,75.3,54.3,29.95,NE,51,7.0,7.0,48,0.00,,,0.00,Wunderground v.1.13,2013-07-10 17:50:00,
2013-07-10 12:52:00,75.4,54.3,29.95,WSW,238,6.0,7.0,48,0.00,,,0.00,Wunderground v.1.13,2013-07-10 17:52:00,
2013-07-10 12:54:00,75.5,53.9,29.95,NW,304,5.0,9.0,47,0.00,,,0.00,Wunderground v.1.13,2013-07-10 17:54:00,
2013-07-10 12:57:00,75.7,54.0,29.95,WSW,241,4.0,11.0,47,0.00,,,0.00,Wunderground v.1.13,2013-07-10 17:57:00,
2013-07-10 12:59:00,75.7,54.0,29.95,WSW,257,5.0,11.0,47,0.00,,,0.00,Wunderground v.1.13,2013-07-10 17:59:00,
2013-07-10 13:01:00,75.6,53.4,29.95,NNW,337,6.0,6.0,46,0.00,,,0.00,Wunderground v.1.13,2013-07-10 18:01:00,
2013-07-10 13:04:00,75.6,53.4,29.95,NW,306,7.0,14.0,46,0.00,,,0.00,Wunderground v.1.13,2013-07-10 18:04:00,
2013-07-10 13:06:00,75.6,53.4,29.95,West,265,7.0,7.0,46,0.00,,,0.00,Wunderground v.1.13,2013-07-10 18:06:00,
2013-07-10 13:07:00,75.7,54.0,29.95,WSW,254,7.0,7.0,47,0.00,,,0.00,Wunderground v.1.13,2013-07-10 18:07:00,
2013-07-10 13:10:00,76.0,53.7,29.95,WSW,246,5.0,10.0,46,0.00,,,0.00,Wunderground v.1.13,2013-07-10 18:10:00,
2013-07-10 13:11:00,76.0,53.1,29.95,WSW,258,6.0,10.0,45,0.00,,,0.00,Wunderground v.1.13,2013-07-10 18:11:00,
2013-07-10 13:15:00,76.1,54.4,29.95,NNW,334,5.0,5.0,47,0.00,,,0.00,Wunderground v.1.13,2013-07-10 18:15:00,
2013-07-10 13:17:00,76.4,52.2,29.95,WNW,288,5.0,8.0,43,0.00,,,0.00,Wunderground v.1.13,2013-07-10 18:17:00,
2013-07-10 13:18:00,76.4,54.1,29.95,NNW,334,5.0,8.0,46,0.00,,,0.00,Wunderground v.1.13,2013-07-10 18:18:00,
2013-07-10 13:19:00,76.3,52.2,29.95,West,267,6.0,8.0,43,0.00,,,0.00,Wunderground v.1.13,2013-07-10 18:19:00,
2013-07-10 13:22:00,76.2,53.3,29.95,WNW,294,6.0,7.0,45,0.00,,,0.00,Wunderground v.1.13,2013-07-10 18:22:00,
2013-07-10 13:23:00,76.3,53.4,29.95,WSW,246,6.0,7.0,45,0.00,,,0.00,Wunderground v.1.13,2013-07-10 18:23:00,
2013-07-10 13:24:00,76.2,53.9,29.95,WSW,242,6.0,9.0,46,0.00,,,0.00,Wunderground v.1.13,2013-07-10 18:24:00,
2013-07-10 13:25:00,76.2,53.3,29.95,WSW,248,6.0,8.0,45,0.00,,,0.00,Wunderground v.1.13,2013-07-10 18:25:00,
2013-07-10 13:27:00,76.2,52.7,29.95,West,273,7.0,8.0,44,0.00,,,0.00,Wunderground v.1.13,2013-07-10 18:27:00,
2013-07-10 13:29:00,76.3,53.4,29.95,WNW,282,6.0,12.0,45,0.00,,,0.00,Wunderground v.1.13,2013-07-10 18:29:00,
2013-07-10 13:31:00,76.6,54.3,29.95,NW,311,5.0,5.0,46,0.00,,,0.00,Wunderground v.1.13,2013-07-10 18:31:00,
2013-07-10 13:35:00,77.1,53.5,29.95,West,262,4.0,5.0,44,0.00,,,0.00,Wunderground v.1.13,2013-07-10 18:35:00,
2013-07-10 13:36:00,77.1,54.1,29.95,North,355,3.0,5.0,45,0.00,,,0.00,Wunderground v.1.13,2013-07-10 18:36:00,
2013-07-10 13:37:00,77.2,54.8,29.95,NNW,342,3.0,5.0,46,0.00,,,0.00,Wunderground v.1.13,2013-07-10 18:37:00,
2013-07-10 13:38:00,77.2,54.8,29.95,West,267,3.0,6.0,46,0.00,,,0.00,Wunderground v.1.13,2013-07-10 18:38:00,
2013-07-10 13:40:00,77.2,53.6,29.95,North,360,3.0,4.0,44,0.00,,,0.00,Wunderground v.1.13,2013-07-10 18:40:00,
2013-07-10 13:41:00,77.3,53.7,29.95,North,355,3.0,4.0,44,0.00,,,0.00,Wunderground v.1.13,2013-07-10 18:41:00,
2013-07-10 13:42:00,77.3,54.9,29.94,North,360,3.0,4.0,46,0.00,,,0.00,Wunderground v.1.13,2013-07-10 18:42:00,
2013-07-10 13:44:00,77.6,54.6,29.95,North,349,3.0,4.0,45,0.00,,,0.00,Wunderground v.1.13,2013-07-10 18:44:00,
2013-07-10 13:47:00,77.8,54.1,29.94,WSW,249,3.0,11.0,44,0.00,,,0.00,Wunderground v.1.13,2013-07-10 18:47:00,
2013-07-10 13:49:00,77.4,53.1,29.94,West,259,4.0,11.0,43,0.00,,,0.00,Wunderground v.1.13,2013-07-10 18:49:00,
2013-07-10 13:51:00,77.1,52.9,29.94,WNW,284,5.0,7.0,43,0.00,,,0.00,Wunderground v.1.13,2013-07-10 18:51:00,
2013-07-10 13:53:00,76.9,53.3,29.94,West,280,6.0,9.0,44,0.00,,,0.00,Wunderground v.1.13,2013-07-10 18:53:00,
2013-07-10 13:54:00,76.8,53.2,29.94,West,268,6.0,9.0,44,0.00,,,0.00,Wunderground v.1.13,2013-07-10 18:54:00,
2013-07-10 13:55:00,76.8,53.2,29.94,West,260,7.0,7.0,44,0.00,,,0.00,Wunderground v.1.13,2013-07-10 18:55:00,
2013-07-10 13:58:00,76.9,54.5,29.94,WSW,257,7.0,12.0,46,0.00,,,0.00,Wunderground v.1.13,2013-07-10 18:58:00,
2013-07-10 14:00:00,76.9,53.3,29.94,WSW,250,7.0,7.0,44,0.00,,,0.00,Wunderground v.1.13,2013-07-10 19:00:00,
2013-07-10 14:01:00,76.9,53.9,29.94,West,267,7.0,7.0,45,0.00,,,0.00,Wunderground v.1.13,2013-07-10 19:01:00,
2013-07-10 14:06:00,77.0,53.4,29.94,West,267,6.0,6.0,44,0.00,,,0.00,Wunderground v.1.13,2013-07-10 19:06:00,
2013-07-10 14:07:00,77.1,55.3,29.94,NW,310,6.0,6.0,47,0.00,,,0.00,Wunderground v.1.13,2013-07-10 19:07:00,
2013-07-10 14:09:00,77.2,54.8,29.94,NNW,334,5.0,6.0,46,0.00,,,0.00,Wunderground v.1.13,2013-07-10 19:09:00,
2013-07-10 14:10:00,77.4,55.6,29.94,NW,308,4.0,4.0,47,0.00,,,0.00,Wunderground v.1.13,2013-07-10 19:10:00,
2013-07-10 14:13:00,78.0,55.5,29.94,NNE,27,4.0,6.0,46,0.00,,,0.00,Wunderground v.1.13,2013-07-10 19:13:00,
2013-07-10 14:15:00,78.2,55.1,29.93,WSW,241,3.0,7.0,45,0.00,,,0.00,Wunderground v.1.13,2013-07-10 19:15:00,
2013-07-10 14:16:00,78.2,54.5,29.93,WNW,300,3.0,7.0,44,0.00,,,0.00,Wunderground v.1.13,2013-07-10 19:16:00,
2013-07-10 14:19:00,78.3,54.0,29.94,NE,36,4.0,7.0,43,0.00,,,0.00,Wunderground v.1.13,2013-07-10 19:19:00,
2013-07-10 14:20:00,78.2,53.9,29.93,West,261,4.0,10.0,43,0.00,,,0.00,Wunderground v.1.13,2013-07-10 19:20:00,
2013-07-10 14:24:00,77.8,52.9,29.94,West,263,6.0,10.0,42,0.00,,,0.00,Wunderground v.1.13,2013-07-10 19:24:00,
2013-07-10 14:25:00,77.7,53.4,29.94,WSW,242,6.0,6.0,43,0.00,,,0.00,Wunderground v.1.13,2013-07-10 19:25:00,
2013-07-10 14:26:00,77.7,53.4,29.94,NW,314,6.0,6.0,43,0.00,,,0.00,Wunderground v.1.13,2013-07-10 19:26:00,
2013-07-10 14:28:00,77.6,53.3,29.94,NNW,338,6.0,7.0,43,0.00,,,0.00,Wunderground v.1.13,2013-07-10 19:28:00,
2013-07-10 14:31:00,77.8,54.8,29.94,WNW,298,5.0,6.0,45,0.00,,,0.00,Wunderground v.1.13,2013-07-10 19:31:00,
2013-07-10 14:33:00,78.1,53.8,29.94,West,275,5.0,6.0,43,0.00,,,0.00,Wunderground v.1.13,2013-07-10 19:33:00,
2013-07-10 14:34:00,78.1,53.8,29.94,WSW,255,5.0,6.0,43,0.00,,,0.00,Wunderground v.1.13,2013-07-10 19:34:00,
2013-07-10 14:38:00,78.1,55.0,29.94,NW,304,4.0,7.0,45,0.00,,,0.00,Wunderground v.1.13,2013-07-10 19:38:00,
2013-07-10 14:39:00,78.3,54.6,29.93,NW,319,5.0,7.0,44,0.00,,,0.00,Wunderground v.1.13,2013-07-10 19:39:00,
2013-07-10 14:40:00,78.4,54.7,29.94,West,275,5.0,9.0,44,0.00,,,0.00,Wunderground v.1.13,2013-07-10 19:40:00,
2013-07-10 14:42:00,78.4,53.4,29.94,West,265,6.0,9.0,42,0.00,,,0.00,Wunderground v.1.13,2013-07-10 19:42:00,
2013-07-10 14:45:00,78.3,53.3,29.94,WNW,298,5.0,7.0,42,0.00,,,0.00,Wunderground v.1.13,2013-07-10 19:45:00,
2013-07-10 14:46:00,78.3,53.3,29.94,NW,313,5.0,7.0,42,0.00,,,0.00,Wunderground v.1.13,2013-07-10 19:46:00,
2013-07-10 14:47:00,78.2,52.6,29.94,West,280,5.0,7.0,41,0.00,,,0.00,Wunderground v.1.13,2013-07-10 19:47:00,
2013-07-10 14:52:00,78.3,54.0,29.94,West,277,4.0,9.0,43,0.00,,,0.00,Wunderground v.1.13,2013-07-10 19:52:00,
2013-07-10 14:53:00,78.2,53.2,29.94,West,263,4.0,9.0,42,0.00,,,0.00,Wunderground v.1.13,2013-07-10 19:53:00,
2013-07-10 14:54:00,78.2,53.9,29.93,West,268,4.0,9.0,43,0.00,,,0.00,Wunderground v.1.13,2013-07-10 19:54:00,
2013-07-10 14:55:00,78.2,54.5,29.94,WNW,287,4.0,8.0,44,0.00,,,0.00,Wunderground v.1.13,2013-07-10 19:55:00,
2013-07-10 14:57:00,78.1,55.0,29.94,WNW,283,4.0,8.0,45,0.00,,,0.00,Wunderground v.1.13,2013-07-10 19:57:00,
2013-07-10 14:58:00,78.1,53.8,29.94,West,281,5.0,8.0,43,0.00,,,0.00,Wunderground v.1.13,2013-07-10 19:58:00,
2013-07-10 15:01:00,78.5,54.1,29.94,WSW,246,5.0,6.0,43,0.00,,,0.00,Wunderground v.1.13,2013-07-10 20:01:00,
2013-07-10 15:02:00,78.5,54.8,29.94,North,9,5.0,6.0,44,0.00,,,0.00,Wunderground v.1.13,2013-07-10 20:02:00,
2013-07-10 15:03:00,78.5,54.1,29.94,North,5,5.0,6.0,43,0.00,,,0.00,Wunderground v.1.13,2013-07-10 20:03:00,
2013-07-10 15:05:00,78.7,54.3,29.94,North,5,5.0,5.0,43,0.00,,,0.00,Wunderground v.1.13,2013-07-10 20:05:00,
2013-07-10 15:06:00,78.8,53.8,29.93,North,350,5.0,5.0,42,0.00,,,0.00,Wunderground v.1.13,2013-07-10 20:06:00,
2013-07-10 15:07:00,78.9,54.5,29.94,NW,306,4.0,6.0,43,0.00,,,0.00,Wunderground v.1.13,2013-07-10 20:07:00,
2013-07-10 15:08:00,79.1,54.0,29.94,NW,321,4.0,6.0,42,0.00,,,0.00,Wunderground v.1.13,2013-07-10 20:08:00,
2013-07-10 15:13:00,79.4,54.3,29.94,NNW,329,3.0,5.0,42,0.00,,,0.00,Wunderground v.1.13,2013-07-10 20:13:00,
2013-07-10 15:14:00,79.5,54.4,29.94,West,263,3.0,8.0,42,0.00,,,0.00,Wunderground v.1.13,2013-07-10 20:14:00,
2013-07-10 15:17:00,79.6,53.1,29.93,NNW,335,3.0,6.0,40,0.00,,,0.00,Wunderground v.1.13,2013-07-10 20:17:00,
2013-07-10 15:19:00,79.6,53.1,29.93,West,277,3.0,6.0,40,0.00,,,0.00,Wunderground v.1.13,2013-07-10 20:19:00,
2013-07-10 15:20:00,79.4,53.6,29.93,WNW,287,4.0,4.0,41,0.00,,,0.00,Wunderground v.1.13,2013-07-10 20:20:00,
2013-07-10 15:21:00,79.1,53.4,29.93,WSW,245,4.0,5.0,41,0.00,,,0.00,Wunderground v.1.13,2013-07-10 20:21:00,
2013-07-10 15:24:00,78.6,53.6,29.93,NE,42,5.0,11.0,42,0.00,,,0.00,Wunderground v.1.13,2013-07-10 20:24:00,
2013-07-10 15:26:00,78.4,54.7,29.93,WNW,286,5.0,5.0,44,0.00,,,0.00,Wunderground v.1.13,2013-07-10 20:26:00,
2013-07-10 15:28:00,78.4,54.7,29.93,WSW,253,5.0,5.0,44,0.00,,,0.00,Wunderground v.1.13,2013-07-10 20:28:00,
2013-07-10 15:29:00,78.4,55.3,29.93,West,259,4.0,6.0,45,0.00,,,0.00,Wunderground v.1.13,2013-07-10 20:29:00,
2013-07-10 15:30:00,78.6,52.9,29.93,WSW,248,4.0,4.0,41,0.00,,,0.00,Wunderground v.1.13,2013-07-10 20:30:00,
2013-07-10 15:35:00,79.1,55.9,29.93,NW,318,3.0,5.0,45,0.00,,,0.00,Wunderground v.1.13,2013-07-10 20:35:00,
2013-07-10 15:37:00,79.1,53.4,29.93,NW,315,3.0,7.0,41,0.00,,,0.00,Wunderground v.1.13,2013-07-10 20:37:00,
2013-07-10 15:38:00,79.1,54.0,29.93,West,263,3.0,7.0,42,0.00,,,0.00,Wunderground v.1.13,2013-07-10 20:38:00,
2013-07-10 15:39:00,79.1,54.7,29.93,North,5,3.0,7.0,43,0.00,,,0.00,Wunderground v.1.13,2013-07-10 20:39:00,
2013-07-10 15:40:00,79.1,54.0,29.93,WNW,298,3.0,3.0,42,0.00,,,0.00,Wunderground v.1.13,2013-07-10 20:40:00,
2013-07-10 15:43:00,79.1,55.3,29.93,NNW,330,3.0,3.0,44,0.00,,,0.00,Wunderground v.1.13,2013-07-10 20:43:00,
2013-07-10 15:44:00,79.2,54.1,29.93,NNW,333,3.0,3.0,42,0.00,,,0.00,Wunderground v.1.13,2013-07-10 20:44:00,
2013-07-10 15:45:00,79.2,54.8,29.93,WNW,300,3.0,3.0,43,0.00,,,0.00,Wunderground v.1.13,2013-07-10 20:45:00,
2013-07-10 15:47:00,79.3,54.2,29.93,WNW,303,2.0,3.0,42,0.00,,,0.00,Wunderground v.1.13,2013-07-10 20:47:00,
2013-07-10 15:48:00,79.3,53.6,29.93,NNE,18,2.0,3.0,41,0.00,,,0.00,Wunderground v.1.13,2013-07-10 20:48:00,
2013-07-10 15:52:00,79.7,55.2,29.93,North,9,2.0,2.0,43,0.00,,,0.00,Wunderground v.1.13,2013-07-10 20:52:00,
2013-07-10 15:53:00,79.8,54.7,29.93,North,360,2.0,5.0,42,0.00,,,0.00,Wunderground v.1.13,2013-07-10 20:53:00,
2013-07-10 15:56:00,80.1,54.9,29.93,NE,38,2.0,2.0,42,0.00,,,0.00,Wunderground v.1.13,2013-07-10 20:56:00,
2013-07-10 15:58:00,80.2,54.4,29.93,West,259,3.0,3.0,41,0.00,,,0.00,Wunderground v.1.13,2013-07-10 20:58:00,
2013-07-10 15:59:00,80.2,53.7,29.93,WNW,292,2.0,3.0,40,0.00,,,0.00,Wunderground v.1.13,2013-07-10 20:59:00,
2013-07-10 16:00:00,80.3,53.1,29.93,West,260,3.0,5.0,39,0.00,,,0.00,Wunderground v.1.13,2013-07-10 21:00:00,
2013-07-10 16:03:00,79.9,52.7,29.93,NW,311,3.0,6.0,39,0.00,,,0.00,Wunderground v.1.13,2013-07-10 21:03:00,
2013-07-10 16:04:00,79.7,53.2,29.93,SW,226,4.0,9.0,40,0.00,,,0.00,Wunderground v.1.13,2013-07-10 21:04:00,
2013-07-10 16:05:00,79.5,53.1,29.93,West,268,4.0,4.0,40,0.00,,,0.00,Wunderground v.1.13,2013-07-10 21:05:00,
2013-07-10 16:08:00,79.1,54.7,29.93,WNW,295,5.0,7.0,43,0.00,,,0.00,Wunderground v.1.13,2013-07-10 21:08:00,
2013-07-10 16:09:00,79.1,54.0,29.93,West,265,5.0,7.0,42,0.00,,,0.00,Wunderground v.1.13,2013-07-10 21:09:00,
2013-07-10 16:11:00,79.1,54.7,29.93,WNW,298,4.0,4.0,43,0.00,,,0.00,Wunderground v.1.13,2013-07-10 21:11:00,
2013-07-10 16:13:00,79.1,55.3,29.93,NW,323,4.0,4.0,44,0.00,,,0.00,Wunderground v.1.13,2013-07-10 21:13:00,
2013-07-10 16:14:00,79.1,54.7,29.93,NNE,20,3.0,5.0,43,0.00,,,0.00,Wunderground v.1.13,2013-07-10 21:14:00,
2013-07-10 16:15:00,78.9,53.9,29.93,NNW,327,3.0,3.0,42,0.00,,,0.00,Wunderground v.1.13,2013-07-10 21:15:00,
2013-07-10 16:20:00,78.8,55.0,29.93,NNW,340,2.0,2.0,44,0.00,,,0.00,Wunderground v.1.13,2013-07-10 21:20:00,
2013-07-10 16:21:00,78.8,55.0,29.93,NNW,340,2.0,3.0,44,0.00,,,0.00,Wunderground v.1.13,2013-07-10 21:21:00,
2013-07-10 16:24:00,78.9,54.5,29.93,WNW,294,2.0,3.0,43,0.00,,,0.00,Wunderground v.1.13,2013-07-10 21:24:00,
2013-07-10 16:26:00,79.0,55.2,29.93,NNW,346,2.0,2.0,44,0.00,,,0.00,Wunderground v.1.13,2013-07-10 21:26:00,
2013-07-10 16:27:00,79.1,55.3,29.93,NNW,334,2.0,2.0,44,0.00,,,0.00,Wunderground v.1.13,2013-07-10 21:27:00,
2013-07-10 16:28:00,79.1,54.7,29.93,NNW,329,1.0,2.0,43,0.00,,,0.00,Wunderground v.1.13,2013-07-10 21:28:00,
2013-07-10 16:29:00,79.1,55.3,29.93,NNW,329,1.0,7.0,44,0.00,,,0.00,Wunderground v.1.13,2013-07-10 21:29:00,
2013-07-10 16:33:00,79.5,54.4,29.93,WNW,299,2.0,5.0,42,0.00,,,0.00,Wunderground v.1.13,2013-07-10 21:33:00,
2013-07-10 16:34:00,79.5,56.3,29.93,WNW,292,2.0,5.0,45,0.00,,,0.00,Wunderground v.1.13,2013-07-10 21:34:00,
2013-07-10 16:37:00,79.2,54.1,29.93,West,271,3.0,3.0,42,0.00,,,0.00,Wunderground v.1.13,2013-07-10 21:37:00,
2013-07-10 16:38:00,79.1,53.4,29.93,WNW,286,3.0,4.0,41,0.00,,,0.00,Wunderground v.1.13,2013-07-10 21:38:00,
2013-07-10 16:40:00,79.0,54.6,29.93,NW,319,4.0,4.0,43,0.00,,,0.00,Wunderground v.1.13,2013-07-10 21:40:00,
2013-07-10 16:41:00,78.9,55.1,29.93,NW,319,3.0,4.0,44,0.00,,,0.00,Wunderground v.1.13,2013-07-10 21:41:00,
2013-07-10 16:45:00,79.1,53.4,29.93,NNW,340,3.0,5.0,41,0.00,,,0.00,Wunderground v.1.13,2013-07-10 21:45:00,
2013-07-10 16:46:00,79.1,53.4,29.93,NNW,327,2.0,5.0,41,0.00,,,0.00,Wunderground v.1.13,2013-07-10 21:46:00,
2013-07-10 16:47:00,79.1,54.7,29.93,NNW,327,2.0,5.0,43,0.00,,,0.00,Wunderground v.1.13,2013-07-10 21:47:00,
2013-07-10 16:51:00,79.4,54.3,29.93,NW,320,2.0,2.0,42,0.00,,,0.00,Wunderground v.1.13,2013-07-10 21:51:00,
2013-07-10 16:52:00,79.5,53.7,29.93,NW,320,2.0,2.0,41,0.00,,,0.00,Wunderground v.1.13,2013-07-10 21:52:00,
2013-07-10 16:53:00,79.6,54.5,29.93,NNW,338,2.0,4.0,42,0.00,,,0.00,Wunderground v.1.13,2013-07-10 21:53:00,
2013-07-10 16:54:00,79.7,53.9,29.93,NNW,346,2.0,4.0,41,0.00,,,0.00,Wunderground v.1.13,2013-07-10 21:54:00,
2013-07-10 16:57:00,79.8,54.0,29.93,NNE,21,1.0,4.0,41,0.00,,,0.00,Wunderground v.1.13,2013-07-10 21:57:00,
2013-07-10 16:58:00,79.8,54.0,29.93,NNE,21,1.0,4.0,41,0.00,,,0.00,Wunderground v.1.13,2013-07-10 21:58:00,
2013-07-10 17:00:00,79.8,54.7,29.93,NNW,346,1.0,1.0,42,0.00,,,0.00,Wunderground v.1.13,2013-07-10 22:00:00,
2013-07-10 17:02:00,79.8,55.3,29.93,NNW,344,1.0,1.0,43,0.00,,,0.00,Wunderground v.1.13,2013-07-10 22:02:00,
2013-07-10 17:03:00,79.7,55.2,29.93,NNW,344,1.0,1.0,43,0.00,,,0.00,Wunderground v.1.13,2013-07-10 22:03:00,
2013-07-10 17:07:00,79.4,55.0,29.93,NW,318,1.0,2.0,43,0.00,,,0.00,Wunderground v.1.13,2013-07-10 22:07:00,
2013-07-10 17:08:00,79.3,56.1,29.93,NW,319,1.0,2.0,45,0.00,,,0.00,Wunderground v.1.13,2013-07-10 22:08:00,
2013-07-10 17:09:00,79.3,56.1,29.92,NW,319,1.0,2.0,45,0.00,,,0.00,Wunderground v.1.13,2013-07-10 22:09:00,
2013-07-10 17:10:00,79.2,55.4,29.93,NW,319,0.0,0.0,44,0.00,,,0.00,Wunderground v.1.13,2013-07-10 22:10:00,
2013-07-10 17:14:00,79.4,55.0,29.93,NW,319,0.0,0.0,43,0.00,,,0.00,Wunderground v.1.13,2013-07-10 22:14:00,
2013-07-10 17:15:00,79.5,55.7,29.93,NW,319,0.0,0.0,44,0.00,,,0.00,Wunderground v.1.13,2013-07-10 22:15:00,
2013-07-10 17:17:00,79.8,54.7,29.93,West,260,0.0,0.0,42,0.00,,,0.00,Wunderground v.1.13,2013-07-10 22:17:00,
2013-07-10 17:18:00,79.9,54.8,29.93,West,266,0.0,2.0,42,0.00,,,0.00,Wunderground v.1.13,2013-07-10 22:18:00,
2013-07-10 17:20:00,80.2,56.3,29.93,West,266,0.0,0.0,44,0.00,,,0.00,Wunderground v.1.13,2013-07-10 22:20:00,
2013-07-10 17:21:00,80.2,55.0,29.93,West,265,0.0,0.0,42,0.00,,,0.00,Wunderground v.1.13,2013-07-10 22:21:00,
2013-07-10 17:25:00,80.1,54.9,29.93,West,267,1.0,1.0,42,0.00,,,0.00,Wunderground v.1.13,2013-07-10 22:25:00,
2013-07-10 17:27:00,79.8,54.7,29.93,West,267,1.0,1.0,42,0.00,,,0.00,Wunderground v.1.13,2013-07-10 22:27:00,
2013-07-10 17:29:00,79.5,53.7,29.92,West,267,0.0,5.0,41,0.00,,,0.00,Wunderground v.1.13,2013-07-10 22:29:00,
2013-07-10 17:30:00,79.3,53.6,29.92,West,267,0.0,0.0,41,0.00,,,0.00,Wunderground v.1.13,2013-07-10 22:30:00,
2013-07-10 17:32:00,79.1,54.0,29.92,West,267,0.0,3.0,42,0.00,,,0.00,Wunderground v.1.13,2013-07-10 22:32:00,
2013-07-10 17:36:00,79.0,54.6,29.92,West,267,0.0,0.0,43,0.00,,,0.00,Wunderground v.1.13,2013-07-10 22:36:00,
2013-07-10 17:37:00,79.0,54.6,29.92,West,267,0.0,0.0,43,0.00,,,0.00,Wunderground v.1.13,2013-07-10 22:37:00,
2013-07-10 17:39:00,79.1,54.7,29.92,West,267,0.0,0.0,43,0.00,,,0.00,Wunderground v.1.13,2013-07-10 22:39:00,
2013-07-10 17:40:00,79.1,55.9,29.92,West,267,0.0,0.0,45,0.00,,,0.00,Wunderground v.1.13,2013-07-10 22:40:00,
2013-07-10 17:43:00,79.2,55.4,29.92,West,267,0.0,1.0,44,0.00,,,0.00,Wunderground v.1.13,2013-07-10 22:43:00,
2013-07-10 17:44:00,79.3,55.5,29.92,West,267,0.0,1.0,44,0.00,,,0.00,Wunderground v.1.13,2013-07-10 22:44:00,
2013-07-10 17:46:00,79.5,55.7,29.92,West,271,0.0,1.0,44,0.00,,,0.00,Wunderground v.1.13,2013-07-10 22:46:00,
2013-07-10 17:47:00,79.6,55.1,29.92,West,273,0.0,1.0,43,0.00,,,0.00,Wunderground v.1.13,2013-07-10 22:47:00,
2013-07-10 17:48:00,79.6,54.5,29.91,West,273,0.0,1.0,42,0.00,,,0.00,Wunderground v.1.13,2013-07-10 22:48:00,
2013-07-10 17:49:00,79.7,55.2,29.92,West,273,0.0,1.0,43,0.00,,,0.00,Wunderground v.1.13,2013-07-10 22:49:00,
2013-07-10 17:51:00,79.8,55.9,29.91,West,273,0.0,0.0,44,0.00,,,0.00,Wunderground v.1.13,2013-07-10 22:51:00,
2013-07-10 17:53:00,80.0,55.5,29.91,West,273,0.0,0.0,43,0.00,,,0.00,Wunderground v.1.13,2013-07-10 22:53:00,
2013-07-10 17:54:00,80.1,55.6,29.91,West,273,0.0,0.0,43,0.00,,,0.00,Wunderground v.1.13,2013-07-10 22:54:00,
2013-07-10 17:55:00,80.2,55.7,29.91,West,273,0.0,0.0,43,0.00,,,0.00,Wunderground v.1.13,2013-07-10 22:55:00,
2013-07-10 17:56:00,80.3,57.0,29.91,West,273,0.0,0.0,45,0.00,,,0.00,Wunderground v.1.13,2013-07-10 22:56:00,
2013-07-10 17:58:00,80.4,55.2,29.91,West,279,0.0,0.0,42,0.00,,,0.00,Wunderground v.1.13,2013-07-10 22:58:00,
2013-07-10 18:00:00,80.6,55.4,29.91,West,279,0.0,0.0,42,0.00,,,0.00,Wunderground v.1.13,2013-07-10 23:00:00,
2013-07-10 18:02:00,80.7,56.1,29.91,West,279,0.0,1.0,43,0.00,,,0.00,Wunderground v.1.13,2013-07-10 23:02:00,
2013-07-10 18:03:00,80.7,55.5,29.91,West,279,0.0,1.0,42,0.00,,,0.00,Wunderground v.1.13,2013-07-10 23:03:00,
2013-07-10 18:05:00,80.6,56.0,29.91,West,279,0.0,0.0,43,0.00,,,0.00,Wunderground v.1.13,2013-07-10 23:05:00,
2013-07-10 18:06:00,80.5,55.9,29.91,West,279,0.0,0.0,43,0.00,,,0.00,Wunderground v.1.13,2013-07-10 23:06:00,
2013-07-10 18:09:00,80.4,55.2,29.91,West,279,0.0,1.0,42,0.00,,,0.00,Wunderground v.1.13,2013-07-10 23:09:00,
2013-07-10 18:10:00,80.3,55.1,29.91,West,279,0.0,1.0,42,0.00,,,0.00,Wunderground v.1.13,2013-07-10 23:10:00,
2013-07-10 18:12:00,80.2,55.7,29.91,West,279,0.0,1.0,43,0.00,,,0.00,Wunderground v.1.13,2013-07-10 23:12:00,
2013-07-10 18:15:00,80.1,56.2,29.91,West,279,0.0,0.0,44,0.00,,,0.00,Wunderground v.1.13,2013-07-10 23:15:00,
2013-07-10 18:16:00,80.2,56.9,29.91,West,279,0.0,0.0,45,0.00,,,0.00,Wunderground v.1.13,2013-07-10 23:16:00,
2013-07-10 18:17:00,80.3,57.0,29.91,West,279,0.0,0.0,45,0.00,,,0.00,Wunderground v.1.13,2013-07-10 23:17:00,
2013-07-10 18:19:00,80.4,57.1,29.91,NW,315,0.0,0.0,45,0.00,,,0.00,Wunderground v.1.13,2013-07-10 23:19:00,
2013-07-10 18:20:00,80.4,57.7,29.91,NW,315,0.0,0.0,46,0.00,,,0.00,Wunderground v.1.13,2013-07-10 23:20:00,
2013-07-10 18:22:00,80.4,55.9,29.91,NW,318,0.0,4.0,43,0.00,,,0.00,Wunderground v.1.13,2013-07-10 23:22:00,
2013-07-10 18:24:00,80.1,55.6,29.91,NW,323,0.0,4.0,43,0.00,,,0.00,Wunderground v.1.13,2013-07-10 23:24:00,
2013-07-10 18:25:00,80.0,55.5,29.91,NW,321,1.0,4.0,43,0.00,,,0.00,Wunderground v.1.13,2013-07-10 23:25:00,
2013-07-10 18:27:00,79.6,55.1,29.91,NW,321,1.0,4.0,43,0.00,,,0.00,Wunderground v.1.13,2013-07-10 23:27:00,
2013-07-10 18:28:00,79.5,55.0,29.91,NW,321,1.0,4.0,43,0.00,,,0.00,Wunderground v.1.13,2013-07-10 23:28:00,
2013-07-10 18:29:00,79.4,55.0,29.91,NW,321,1.0,4.0,43,0.00,,,0.00,Wunderground v.1.13,2013-07-10 23:29:00,
2013-07-10 18:33:00,79.3,56.1,29.91,NW,321,1.0,1.0,45,0.00,,,0.00,Wunderground v.1.13,2013-07-10 23:33:00,
2013-07-10 18:34:00,79.3,56.1,29.92,NW,321,0.0,1.0,45,0.00,,,0.00,Wunderground v.1.13,2013-07-10 23:34:00,
2013-07-10 18:35:00,79.3,55.5,29.92,NW,321,0.0,0.0,44,0.00,,,0.00,Wunderground v.1.13,2013-07-10 23:35:00,
2013-07-10 18:36:00,79.2,56.0,29.91,NW,321,0.0,0.0,45,0.00,,,0.00,Wunderground v.1.13,2013-07-10 23:36:00,
2013-07-10 18:37:00,79.3,56.7,29.91,NW,321,0.0,0.0,46,0.00,,,0.00,Wunderground v.1.13,2013-07-10 23:37:00,
2013-07-10 18:39:00,79.3,56.1,29.92,NW,321,0.0,1.0,45,0.00,,,0.00,Wunderground v.1.13,2013-07-10 23:39:00,
2013-07-10 18:42:00,79.4,56.8,29.91,NW,322,0.0,1.0,46,0.00,,,0.00,Wunderground v.1.13,2013-07-10 23:42:00,
2013-07-10 18:44:00,79.6,57.0,29.91,NW,323,0.0,1.0,46,0.00,,,0.00,Wunderground v.1.13,2013-07-10 23:44:00,
2013-07-10 18:46:00,79.6,55.8,29.91,NW,322,0.0,0.0,44,0.00,,,0.00,Wunderground v.1.13,2013-07-10 23:46:00,
2013-07-10 18:47:00,79.7,55.9,29.92,NW,323,0.0,0.0,44,0.00,,,0.00,Wunderground v.1.13,2013-07-10 23:47:00,
2013-07-10 18:48:00,79.7,57.7,29.92,NW,323,0.0,1.0,47,0.00,,,0.00,Wunderground v.1.13,2013-07-10 23:48:00,
2013-07-10 18:51:00,79.7,55.9,29.91,NW,323,0.0,0.0,44,0.00,,,0.00,Wunderground v.1.13,2013-07-10 23:51:00,
2013-07-10 18:53:00,79.6,55.8,29.91,NW,323,0.0,0.0,44,0.00,,,0.00,Wunderground v.1.13,2013-07-10 23:53:00,
2013-07-10 18:54:00,79.6,56.4,29.91,NW,323,0.0,0.0,45,0.00,,,0.00,Wunderground v.1.13,2013-07-10 23:54:00,
2013-07-10 18:56:00,79.5,56.3,29.91,NW,322,0.0,0.0,45,0.00,,,0.00,Wunderground v.1.13,2013-07-10 23:56:00,
2013-07-10 18:58:00,79.5,56.3,29.91,NW,323,0.0,1.0,45,0.00,,,0.00,Wunderground v.1.13,2013-07-10 23:58:00,
2013-07-10 18:59:00,79.5,55.7,29.91,NW,323,0.0,1.0,44,0.00,,,0.00,Wunderground v.1.13,2013-07-10 23:59:00,
2013-07-10 19:01:00,79.5,56.3,29.92,NW,322,0.0,0.0,45,0.00,,,0.00,Wunderground v.1.13,2013-07-11 00:01:00,
2013-07-10 19:04:00,79.6,57.0,29.91,NW,323,0.0,0.0,46,0.00,,,0.00,Wunderground v.1.13,2013-07-11 00:04:00,
2013-07-10 19:05:00,79.7,56.5,29.91,NW,323,0.0,0.0,45,0.00,,,0.00,Wunderground v.1.13,2013-07-11 00:05:00,
2013-07-10 19:06:00,79.7,56.5,29.91,NW,323,0.0,0.0,45,0.00,,,0.00,Wunderground v.1.13,2013-07-11 00:06:00,
2013-07-10 19:11:00,79.9,57.9,29.91,NW,323,0.0,0.0,47,0.00,,,0.00,Wunderground v.1.13,2013-07-11 00:11:00,
2013-07-10 19:12:00,79.9,57.3,29.91,NW,323,0.0,0.0,46,0.00,,,0.00,Wunderground v.1.13,2013-07-11 00:12:00,
2013-07-10 19:13:00,80.0,56.7,29.91,NW,322,0.0,0.0,45,0.00,,,0.00,Wunderground v.1.13,2013-07-11 00:13:00,
2013-07-10 19:15:00,80.0,58.5,29.91,NW,323,0.0,0.0,48,0.00,,,0.00,Wunderground v.1.13,2013-07-11 00:15:00,
2013-07-10 19:17:00,80.0,58.5,29.91,NW,323,0.0,0.0,48,0.00,,,0.00,Wunderground v.1.13,2013-07-11 00:17:00,
2013-07-10 19:18:00,80.0,59.1,29.91,NW,322,0.0,0.0,49,0.00,,,0.00,Wunderground v.1.13,2013-07-11 00:18:00,
2013-07-10 19:20:00,79.9,57.9,29.91,NW,322,0.0,0.0,47,0.00,,,0.00,Wunderground v.1.13,2013-07-11 00:20:00,
2013-07-10 19:21:00,79.9,57.9,29.91,NW,322,0.0,0.0,47,0.00,,,0.00,Wunderground v.1.13,2013-07-11 00:21:00,
2013-07-10 19:23:00,79.8,57.8,29.91,NW,322,0.0,0.0,47,0.00,,,0.00,Wunderground v.1.13,2013-07-11 00:23:00,
2013-07-10 19:27:00,79.6,58.2,29.91,NW,322,0.0,0.0,48,0.00,,,0.00,Wunderground v.1.13,2013-07-11 00:27:00,
2013-07-10 19:28:00,79.6,58.2,29.91,NW,322,0.0,0.0,48,0.00,,,0.00,Wunderground v.1.13,2013-07-11 00:28:00,
2013-07-10 19:33:00,79.3,59.0,29.91,NW,322,0.0,0.0,50,0.00,,,0.00,Wunderground v.1.13,2013-07-11 00:33:00,
2013-07-10 19:34:00,79.2,59.0,29.91,NW,322,0.0,0.0,50,0.00,,,0.00,Wunderground v.1.13,2013-07-11 00:34:00,
2013-07-10 19:37:00,79.0,58.2,29.91,NW,319,0.0,2.0,49,0.00,,,0.00,Wunderground v.1.13,2013-07-11 00:37:00,
2013-07-10 19:38:00,78.8,58.0,29.91,NW,319,0.0,2.0,49,0.00,,,0.00,Wunderground v.1.13,2013-07-11 00:38:00,
2013-07-10 19:39:00,78.7,58.5,29.91,NW,319,0.0,2.0,50,0.00,,,0.00,Wunderground v.1.13,2013-07-11 00:39:00,
2013-07-10 19:42:00,78.3,58.7,29.91,NW,319,0.0,0.0,51,0.00,,,0.00,Wunderground v.1.13,2013-07-11 00:42:00,
2013-07-10 19:44:00,78.1,59.0,29.91,NW,319,0.0,0.0,52,0.00,,,0.00,Wunderground v.1.13,2013-07-11 00:44:00,
2013-07-10 19:46:00,78.0,59.5,29.91,NW,319,0.0,0.0,53,0.00,,,0.00,Wunderground v.1.13,2013-07-11 00:46:00,
2013-07-10 19:47:00,78.0,58.9,29.91,NW,319,0.0,0.0,52,0.00,,,0.00,Wunderground v.1.13,2013-07-11 00:47:00,
2013-07-10 19:49:00,78.0,59.5,29.91,NW,319,0.0,0.0,53,0.00,,,0.00,Wunderground v.1.13,2013-07-11 00:49:00,
2013-07-10 19:51:00,78.0,60.0,29.91,NW,319,0.0,0.0,54,0.00,,,0.00,Wunderground v.1.13,2013-07-11 00:51:00,
2013-07-10 19:53:00,78.1,60.1,29.91,NW,319,0.0,0.0,54,0.00,,,0.00,Wunderground v.1.13,2013-07-11 00:53:00,
2013-07-10 19:54:00,78.1,60.6,29.91,NW,319,0.0,0.0,55,0.00,,,0.00,Wunderground v.1.13,2013-07-11 00:54:00,
2013-07-10 19:55:00,78.1,60.6,29.91,NW,319,0.0,0.0,55,0.00,,,0.00,Wunderground v.1.13,2013-07-11 00:55:00,
2013-07-10 19:56:00,78.1,60.6,29.91,NW,319,0.0,0.0,55,0.00,,,0.00,Wunderground v.1.13,2013-07-11 00:56:00,
2013-07-10 19:59:00,78.0,61.0,29.91,NW,319,0.0,0.0,56,0.00,,,0.00,Wunderground v.1.13,2013-07-11 00:59:00,
2013-07-10 20:00:00,78.0,61.5,29.91,NW,319,0.0,0.0,57,0.00,,,0.00,Wunderground v.1.13,2013-07-11 01:00:00,
2013-07-10 20:02:00,77.9,61.4,29.91,NW,319,0.0,0.0,57,0.00,,,0.00,Wunderground v.1.13,2013-07-11 01:02:00,
2013-07-10 20:05:00,77.7,61.7,29.91,NW,319,0.0,0.0,58,0.00,,,0.00,Wunderground v.1.13,2013-07-11 01:05:00,
2013-07-10 20:06:00,77.6,62.1,29.91,NW,319,0.0,0.0,59,0.00,,,0.00,Wunderground v.1.13,2013-07-11 01:06:00,
2013-07-10 20:07:00,77.5,62.0,29.91,NW,319,0.0,0.0,59,0.00,,,0.00,Wunderground v.1.13,2013-07-11 01:07:00,
2013-07-10 20:08:00,77.4,61.9,29.91,NW,319,0.0,0.0,59,0.00,,,0.00,Wunderground v.1.13,2013-07-11 01:08:00,
2013-07-10 20:10:00,77.1,62.1,29.91,NW,319,0.0,0.0,60,0.00,,,0.00,Wunderground v.1.13,2013-07-11 01:10:00,
2013-07-10 20:11:00,77.1,62.6,29.91,NW,319,0.0,0.0,61,0.00,,,0.00,Wunderground v.1.13,2013-07-11 01:11:00,
2013-07-10 20:12:00,77.0,62.5,29.91,NW,319,0.0,0.0,61,0.00,,,0.00,Wunderground v.1.13,2013-07-11 01:12:00,
2013-07-10 20:15:00,76.6,62.6,29.91,NW,319,0.0,0.0,62,0.00,,,0.00,Wunderground v.1.13,2013-07-11 01:15:00,
2013-07-10 20:16:00,76.5,62.5,29.91,NW,319,0.0,0.0,62,0.00,,,0.00,Wunderground v.1.13,2013-07-11 01:16:00,
2013-07-10 20:17:00,76.3,62.3,29.91,NW,319,0.0,0.0,62,0.00,,,0.00,Wunderground v.1.13,2013-07-11 01:17:00,
2013-07-10 20:18:00,76.2,62.7,29.91,NW,319,0.0,0.0,63,0.00,,,0.00,Wunderground v.1.13,2013-07-11 01:18:00,
2013-07-10 20:19:00,75.9,62.4,29.91,NW,319,0.0,0.0,63,0.00,,,0.00,Wunderground v.1.13,2013-07-11 01:19:00,
2013-07-10 20:22:00,75.2,62.2,29.92,NW,319,0.0,0.0,64,0.00,,,0.00,Wunderground v.1.13,2013-07-11 01:22:00,
2013-07-10 20:23:00,75.0,62.0,29.92,NW,319,0.0,0.0,64,0.00,,,0.00,Wunderground v.1.13,2013-07-11 01:23:00,
2013-07-10 20:24:00,74.8,62.2,29.92,NW,319,0.0,0.0,65,0.00,,,0.00,Wunderground v.1.13,2013-07-11 01:24:00,
2013-07-10 20:25:00,74.6,62.5,29.92,NW,319,0.0,0.0,66,0.00,,,0.00,Wunderground v.1.13,2013-07-11 01:25:00,
2013-07-10 20:26:00,74.4,62.7,29.92,NW,319,0.0,0.0,67,0.00,,,0.00,Wunderground v.1.13,2013-07-11 01:26:00,
2013-07-10 20:29:00,73.8,61.3,29.92,NW,319,0.0,0.0,65,0.00,,,0.00,Wunderground v.1.13,2013-07-11 01:29:00,
2013-07-10 20:31:00,73.5,61.4,29.92,NW,319,0.0,0.0,66,0.00,,,0.00,Wunderground v.1.13,2013-07-11 01:31:00,
2013-07-10 20:32:00,73.3,61.7,29.92,NW,319,0.0,0.0,67,0.00,,,0.00,Wunderground v.1.13,2013-07-11 01:32:00,
2013-07-10 20:34:00,73.0,61.4,29.92,NW,319,0.0,0.0,67,0.00,,,0.00,Wunderground v.1.13,2013-07-11 01:34:00,
2013-07-10 20:36:00,72.8,61.6,29.92,NW,319,0.0,0.0,68,0.00,,,0.00,Wunderground v.1.13,2013-07-11 01:36:00,
2013-07-10 20:37:00,72.6,61.4,29.92,NW,319,0.0,0.0,68,0.00,,,0.00,Wunderground v.1.13,2013-07-11 01:37:00,
2013-07-10 20:38:00,72.5,61.7,29.92,NW,319,0.0,0.0,69,0.00,,,0.00,Wunderground v.1.13,2013-07-11 01:38:00,
2013-07-10 20:39:00,72.3,61.6,29.92,NW,319,0.0,0.0,69,0.00,,,0.00,Wunderground v.1.13,2013-07-11 01:39:00,
2013-07-10 20:40:00,72.2,61.9,29.92,NW,319,0.0,0.0,70,0.00,,,0.00,Wunderground v.1.13,2013-07-11 01:40:00,
2013-07-10 20:43:00,71.7,61.4,29.92,NW,319,0.0,0.0,70,0.00,,,0.00,Wunderground v.1.13,2013-07-11 01:43:00,
2013-07-10 20:45:00,71.6,60.9,29.92,NW,319,0.0,0.0,69,0.00,,,0.00,Wunderground v.1.13,2013-07-11 01:45:00,
2013-07-10 20:46:00,71.5,60.8,29.92,NW,319,0.0,0.0,69,0.00,,,0.00,Wunderground v.1.13,2013-07-11 01:46:00,
2013-07-10 20:48:00,71.4,60.7,29.92,NW,319,0.0,2.0,69,0.00,,,0.00,Wunderground v.1.13,2013-07-11 01:48:00,
2013-07-10 20:49:00,71.4,60.7,29.92,NW,319,0.0,2.0,69,0.00,,,0.00,Wunderground v.1.13,2013-07-11 01:49:00,
2013-07-10 20:51:00,71.3,60.2,29.92,NW,319,0.0,0.0,68,0.00,,,0.00,Wunderground v.1.13,2013-07-11 01:51:00,
2013-07-10 20:54:00,71.1,60.0,29.92,NW,319,0.0,0.0,68,0.00,,,0.00,Wunderground v.1.13,2013-07-11 01:54:00,
2013-07-10 20:56:00,70.9,59.8,29.92,NW,319,0.0,0.0,68,0.00,,,0.00,Wunderground v.1.13,2013-07-11 01:56:00,
2013-07-10 20:57:00,70.8,59.7,29.92,NW,319,0.0,0.0,68,0.00,,,0.00,Wunderground v.1.13,2013-07-11 01:57:00,
2013-07-10 20:58:00,70.8,60.1,29.92,NW,319,0.0,0.0,69,0.00,,,0.00,Wunderground v.1.13,2013-07-11 01:58:00,
2013-07-10 20:59:00,70.7,60.0,29.92,NW,319,0.0,0.0,69,0.00,,,0.00,Wunderground v.1.13,2013-07-11 01:59:00,
2013-07-10 21:00:00,70.6,59.9,29.92,NW,319,0.0,0.0,69,0.00,,,0.00,Wunderground v.1.13,2013-07-11 02:00:00,
2013-07-10 21:01:00,70.5,59.8,29.92,NW,319,0.0,0.0,69,0.00,,,0.00,Wunderground v.1.13,2013-07-11 02:01:00,
2013-07-10 21:03:00,70.5,59.8,29.92,NW,319,0.0,0.0,69,0.00,,,0.00,Wunderground v.1.13,2013-07-11 02:03:00,
2013-07-10 21:05:00,70.4,59.7,29.92,NW,319,0.0,0.0,69,0.00,,,0.00,Wunderground v.1.13,2013-07-11 02:05:00,
2013-07-10 21:07:00,70.3,59.6,29.92,NW,319,0.0,0.0,69,0.00,,,0.00,Wunderground v.1.13,2013-07-11 02:07:00,
2013-07-10 21:10:00,70.2,59.6,29.92,NW,319,0.0,0.0,69,0.00,,,0.00,Wunderground v.1.13,2013-07-11 02:10:00,
2013-07-10 21:12:00,70.0,59.4,29.92,NW,319,0.0,0.0,69,0.00,,,0.00,Wunderground v.1.13,2013-07-11 02:12:00,
2013-07-10 21:15:00,69.8,59.2,29.92,NW,319,0.0,0.0,69,0.00,,,0.00,Wunderground v.1.13,2013-07-11 02:15:00,
2013-07-10 21:17:00,69.7,59.1,29.92,NW,319,0.0,0.0,69,0.00,,,0.00,Wunderground v.1.13,2013-07-11 02:17:00,
2013-07-10 21:18:00,69.7,59.1,29.92,NW,319,0.0,0.0,69,0.00,,,0.00,Wunderground v.1.13,2013-07-11 02:18:00,
2013-07-10 21:20:00,69.6,59.4,29.93,NW,319,0.0,0.0,70,0.00,,,0.00,Wunderground v.1.13,2013-07-11 02:20:00,
2013-07-10 21:21:00,69.5,58.9,29.93,NW,319,0.0,0.0,69,0.00,,,0.00,Wunderground v.1.13,2013-07-11 02:21:00,
2013-07-10 21:22:00,69.5,59.3,29.93,NW,319,0.0,0.0,70,0.00,,,0.00,Wunderground v.1.13,2013-07-11 02:22:00,
2013-07-10 21:25:00,69.4,59.6,29.93,NW,319,0.0,0.0,71,0.00,,,0.00,Wunderground v.1.13,2013-07-11 02:25:00,
2013-07-10 21:27:00,69.2,59.4,29.93,NW,319,0.0,0.0,71,0.00,,,0.00,Wunderground v.1.13,2013-07-11 02:27:00,
2013-07-10 21:28:00,69.2,59.4,29.93,NW,319,0.0,0.0,71,0.00,,,0.00,Wunderground v.1.13,2013-07-11 02:28:00,
2013-07-10 21:29:00,69.1,59.7,29.93,NW,319,0.0,1.0,72,0.00,,,0.00,Wunderground v.1.13,2013-07-11 02:29:00,
2013-07-10 21:30:00,68.9,59.5,29.93,NW,319,0.0,0.0,72,0.00,,,0.00,Wunderground v.1.13,2013-07-11 02:30:00,
2013-07-10 21:33:00,68.7,59.3,29.93,NW,319,0.0,0.0,72,0.00,,,0.00,Wunderground v.1.13,2013-07-11 02:33:00,
2013-07-10 21:35:00,68.5,59.1,29.93,NW,319,0.0,0.0,72,0.00,,,0.00,Wunderground v.1.13,2013-07-11 02:35:00,
2013-07-10 21:36:00,68.4,59.0,29.93,NW,319,0.0,0.0,72,0.00,,,0.00,Wunderground v.1.13,2013-07-11 02:36:00,
2013-07-10 21:39:00,68.3,59.3,29.93,NW,319,0.0,0.0,73,0.00,,,0.00,Wunderground v.1.13,2013-07-11 02:39:00,
2013-07-10 21:40:00,68.3,58.9,29.93,NW,319,0.0,0.0,72,0.00,,,0.00,Wunderground v.1.13,2013-07-11 02:40:00,
2013-07-10 21:41:00,68.3,59.3,29.93,NW,319,0.0,0.0,73,0.00,,,0.00,Wunderground v.1.13,2013-07-11 02:41:00,
2013-07-10 21:44:00,68.2,59.2,29.93,NW,319,0.0,0.0,73,0.00,,,0.00,Wunderground v.1.13,2013-07-11 02:44:00,
2013-07-10 21:46:00,68.1,59.1,29.93,NW,319,0.0,2.0,73,0.00,,,0.00,Wunderground v.1.13,2013-07-11 02:46:00,
2013-07-10 21:49:00,67.9,59.3,29.94,NW,319,1.0,3.0,74,0.00,,,0.00,Wunderground v.1.13,2013-07-11 02:49:00,
2013-07-10 21:52:00,67.9,59.3,29.94,NW,319,1.0,2.0,74,0.00,,,0.00,Wunderground v.1.13,2013-07-11 02:52:00,
2013-07-10 21:54:00,67.9,58.9,29.94,NW,319,2.0,2.0,73,0.00,,,0.00,Wunderground v.1.13,2013-07-11 02:54:00,
2013-07-10 21:55:00,67.9,58.9,29.94,NW,319,2.0,2.0,73,0.00,,,0.00,Wunderground v.1.13,2013-07-11 02:55:00,
2013-07-10 21:56:00,67.8,59.2,29.94,NW,319,2.0,2.0,74,0.00,,,0.00,Wunderground v.1.13,2013-07-11 02:56:00,
2013-07-10 21:59:00,67.7,59.1,29.94,NW,319,2.0,3.0,74,0.00,,,0.00,Wunderground v.1.13,2013-07-11 02:59:00,
2013-07-10 22:00:00,67.6,59.0,29.94,NW,319,2.0,2.0,74,0.00,,,0.00,Wunderground v.1.13,2013-07-11 03:00:00,
2013-07-10 22:02:00,67.5,58.9,29.94,NW,319,2.0,3.0,74,0.00,,,0.00,Wunderground v.1.13,2013-07-11 03:02:00,
2013-07-10 22:04:00,67.4,58.8,29.94,NW,319,2.0,3.0,74,0.00,,,0.00,Wunderground v.1.13,2013-07-11 03:04:00,
2013-07-10 22:06:00,67.4,58.8,29.94,NW,319,1.0,2.0,74,0.00,,,0.00,Wunderground v.1.13,2013-07-11 03:06:00,
2013-07-10 22:08:00,67.4,58.8,29.94,NW,319,1.0,2.0,74,0.00,,,0.00,Wunderground v.1.13,2013-07-11 03:08:00,
2013-07-10 22:11:00,67.4,58.8,29.94,NW,319,1.0,1.0,74,0.00,,,0.00,Wunderground v.1.13,2013-07-11 03:11:00,
2013-07-10 22:13:00,67.3,58.7,29.94,NW,319,0.0,1.0,74,0.00,,,0.00,Wunderground v.1.13,2013-07-11 03:13:00,
2013-07-10 22:15:00,67.2,59.0,29.94,NW,319,0.0,0.0,75,0.00,,,0.00,Wunderground v.1.13,2013-07-11 03:15:00,
2013-07-10 22:16:00,67.1,58.9,29.94,NW,319,0.0,0.0,75,0.00,,,0.00,Wunderground v.1.13,2013-07-11 03:16:00,
2013-07-10 22:17:00,67.1,58.9,29.94,NW,319,0.0,0.0,75,0.00,,,0.00,Wunderground v.1.13,2013-07-11 03:17:00,
2013-07-10 22:19:00,67.0,58.8,29.94,NW,319,0.0,0.0,75,0.00,,,0.00,Wunderground v.1.13,2013-07-11 03:19:00,
2013-07-10 22:22:00,66.9,58.7,29.95,NW,319,0.0,0.0,75,0.00,,,0.00,Wunderground v.1.13,2013-07-11 03:22:00,
2013-07-10 22:23:00,66.8,58.6,29.95,NW,319,0.0,0.0,75,0.00,,,0.00,Wunderground v.1.13,2013-07-11 03:23:00,
2013-07-10 22:24:00,66.8,58.6,29.95,NW,319,0.0,0.0,75,0.00,,,0.00,Wunderground v.1.13,2013-07-11 03:24:00,
2013-07-10 22:26:00,66.8,58.6,29.95,NW,319,0.0,0.0,75,0.00,,,0.00,Wunderground v.1.13,2013-07-11 03:26:00,
2013-07-10 22:28:00,66.7,58.5,29.95,NW,319,0.0,0.0,75,0.00,,,0.00,Wunderground v.1.13,2013-07-11 03:28:00,
2013-07-10 22:31:00,66.7,58.5,29.95,NW,319,0.0,0.0,75,0.00,,,0.00,Wunderground v.1.13,2013-07-11 03:31:00,
2013-07-10 22:32:00,66.7,58.5,29.95,NW,319,0.0,0.0,75,0.00,,,0.00,Wunderground v.1.13,2013-07-11 03:32:00,
2013-07-10 22:33:00,66.6,58.4,29.95,NW,319,0.0,0.0,75,0.00,,,0.00,Wunderground v.1.13,2013-07-11 03:33:00,
2013-07-10 22:34:00,66.6,58.4,29.95,NW,319,0.0,0.0,75,0.00,,,0.00,Wunderground v.1.13,2013-07-11 03:34:00,
2013-07-10 22:35:00,66.5,58.3,29.95,NW,319,0.0,0.0,75,0.00,,,0.00,Wunderground v.1.13,2013-07-11 03:35:00,
2013-07-10 22:37:00,66.4,58.6,29.95,NW,319,0.0,0.0,76,0.00,,,0.00,Wunderground v.1.13,2013-07-11 03:37:00,
2013-07-10 22:38:00,66.4,58.6,29.95,NW,319,0.0,0.0,76,0.00,,,0.00,Wunderground v.1.13,2013-07-11 03:38:00,
2013-07-10 22:41:00,66.2,58.4,29.95,NW,319,0.0,0.0,76,0.00,,,0.00,Wunderground v.1.13,2013-07-11 03:41:00,
2013-07-10 22:42:00,66.2,58.4,29.95,NW,319,0.0,0.0,76,0.00,,,0.00,Wunderground v.1.13,2013-07-11 03:42:00,
2013-07-10 22:43:00,66.1,58.3,29.95,NW,319,0.0,0.0,76,0.00,,,0.00,Wunderground v.1.13,2013-07-11 03:43:00,
2013-07-10 22:44:00,66.1,58.3,29.95,NW,319,0.0,0.0,76,0.00,,,0.00,Wunderground v.1.13,2013-07-11 03:44:00,
2013-07-10 22:49:00,65.9,58.1,29.95,NW,319,0.0,0.0,76,0.00,,,0.00,Wunderground v.1.13,2013-07-11 03:49:00,
2013-07-10 22:50:00,65.9,58.1,29.95,NW,319,0.0,0.0,76,0.00,,,0.00,Wunderground v.1.13,2013-07-11 03:50:00,
2013-07-10 22:52:00,65.9,58.1,29.95,NW,319,0.0,0.0,76,0.00,,,0.00,Wunderground v.1.13,2013-07-11 03:52:00,
2013-07-10 22:53:00,65.9,58.1,29.95,NW,319,0.0,0.0,76,0.00,,,0.00,Wunderground v.1.13,2013-07-11 03:53:00,
2013-07-10 22:54:00,65.9,58.1,29.95,NW,319,0.0,0.0,76,0.00,,,0.00,Wunderground v.1.13,2013-07-11 03:54:00,
2013-07-10 22:55:00,66.0,58.2,29.95,NW,319,0.0,0.0,76,0.00,,,0.00,Wunderground v.1.13,2013-07-11 03:55:00,
2013-07-10 22:57:00,65.9,58.1,29.95,NW,319,0.0,0.0,76,0.00,,,0.00,Wunderground v.1.13,2013-07-11 03:57:00,
2013-07-10 22:58:00,65.8,58.0,29.95,NW,319,0.0,0.0,76,0.00,,,0.00,Wunderground v.1.13,2013-07-11 03:58:00,
2013-07-10 22:59:00,65.8,58.0,29.95,NW,319,0.0,0.0,76,0.00,,,0.00,Wunderground v.1.13,2013-07-11 03:59:00,
2013-07-10 23:00:00,65.7,57.9,29.95,NW,319,0.0,0.0,76,0.00,,,0.00,Wunderground v.1.13,2013-07-11 04:00:00,
2013-07-10 23:01:00,65.7,57.9,29.95,NW,319,0.0,0.0,76,0.00,,,0.00,Wunderground v.1.13,2013-07-11 04:01:00,
2013-07-10 23:02:00,65.6,57.8,29.95,NW,319,0.0,0.0,76,0.00,,,0.00,Wunderground v.1.13,2013-07-11 04:02:00,
2013-07-10 23:03:00,65.6,57.8,29.95,NW,319,0.0,0.0,76,0.00,,,0.00,Wunderground v.1.13,2013-07-11 04:03:00,
2013-07-10 23:07:00,65.5,57.7,29.95,NW,319,0.0,0.0,76,0.00,,,0.00,Wunderground v.1.13,2013-07-11 04:07:00,
2013-07-10 23:08:00,65.5,57.7,29.95,NW,319,0.0,0.0,76,0.00,,,0.00,Wunderground v.1.13,2013-07-11 04:08:00,
2013-07-10 23:09:00,65.4,57.6,29.95,NW,319,0.0,0.0,76,0.00,,,0.00,Wunderground v.1.13,2013-07-11 04:09:00,
2013-07-10 23:13:00,65.4,57.6,29.95,NW,319,0.0,0.0,76,0.00,,,0.00,Wunderground v.1.13,2013-07-11 04:13:00,
2013-07-10 23:14:00,65.3,57.5,29.95,NW,319,0.0,0.0,76,0.00,,,0.00,Wunderground v.1.13,2013-07-11 04:14:00,
2013-07-10 23:15:00,65.3,57.9,29.95,NW,319,0.0,0.0,77,0.00,,,0.00,Wunderground v.1.13,2013-07-11 04:15:00,
2013-07-10 23:16:00,65.3,57.9,29.95,NW,319,0.0,0.0,77,0.00,,,0.00,Wunderground v.1.13,2013-07-11 04:16:00,
2013-07-10 23:18:00,65.2,57.8,29.95,NW,319,0.0,0.0,77,0.00,,,0.00,Wunderground v.1.13,2013-07-11 04:18:00,
2013-07-10 23:19:00,65.2,57.8,29.95,NW,319,0.0,0.0,77,0.00,,,0.00,Wunderground v.1.13,2013-07-11 04:19:00,
2013-07-10 23:22:00,65.2,57.8,29.95,NW,319,0.0,0.0,77,0.00,,,0.00,Wunderground v.1.13,2013-07-11 04:22:00,
2013-07-10 23:24:00,65.2,57.8,29.96,NW,319,0.0,0.0,77,0.00,,,0.00,Wunderground v.1.13,2013-07-11 04:24:00,
2013-07-10 23:25:00,65.2,57.8,29.96,NW,319,0.0,0.0,77,0.00,,,0.00,Wunderground v.1.13,2013-07-11 04:25:00,
2013-07-10 23:27:00,65.1,57.7,29.96,NW,319,0.0,0.0,77,0.00,,,0.00,Wunderground v.1.13,2013-07-11 04:27:00,
2013-07-10 23:28:00,65.1,57.7,29.96,NW,319,0.0,0.0,77,0.00,,,0.00,Wunderground v.1.13,2013-07-11 04:28:00,
2013-07-10 23:31:00,64.9,57.5,29.96,NW,319,0.0,0.0,77,0.00,,,0.00,Wunderground v.1.13,2013-07-11 04:31:00,
2013-07-10 23:33:00,64.8,57.4,29.96,NW,319,0.0,0.0,77,0.00,,,0.00,Wunderground v.1.13,2013-07-11 04:33:00,
2013-07-10 23:34:00,64.8,57.4,29.96,NW,319,0.0,0.0,77,0.00,,,0.00,Wunderground v.1.13,2013-07-11 04:34:00,
2013-07-10 23:36:00,64.7,57.3,29.96,NW,319,0.0,0.0,77,0.00,,,0.00,Wunderground v.1.13,2013-07-11 04:36:00,
2013-07-10 23:37:00,64.7,57.3,29.96,NW,319,0.0,1.0,77,0.00,,,0.00,Wunderground v.1.13,2013-07-11 04:37:00,
2013-07-10 23:39:00,64.6,57.2,29.96,NW,319,0.0,2.0,77,0.00,,,0.00,Wunderground v.1.13,2013-07-11 04:39:00,
2013-07-10 23:42:00,64.5,57.5,29.96,NW,319,1.0,1.0,78,0.00,,,0.00,Wunderground v.1.13,2013-07-11 04:42:00,
2013-07-10 23:43:00,64.5,57.5,29.96,NW,319,1.0,1.0,78,0.00,,,0.00,Wunderground v.1.13,2013-07-11 04:43:00,
2013-07-10 23:44:00,64.5,57.5,29.96,NW,319,1.0,1.0,78,0.00,,,0.00,Wunderground v.1.13,2013-07-11 04:44:00,
2013-07-10 23:46:00,64.5,57.5,29.96,NW,319,1.0,1.0,78,0.00,,,0.00,Wunderground v.1.13,2013-07-11 04:46:00,
2013-07-10 23:49:00,64.4,57.0,29.96,NW,319,1.0,2.0,77,0.00,,,0.00,Wunderground v.1.13,2013-07-11 04:49:00,
2013-07-10 23:53:00,64.3,56.9,29.96,NW,319,0.0,1.0,77,0.00,,,0.00,Wunderground v.1.13,2013-07-11 04:53:00,
2013-07-10 23:54:00,64.3,57.3,29.96,NW,319,0.0,1.0,78,0.00,,,0.00,Wunderground v.1.13,2013-07-11 04:54:00,
2013-07-10 23:55:00,64.3,57.3,29.96,NW,319,0.0,1.0,78,0.00,,,0.00,Wunderground v.1.13,2013-07-11 04:55:00,
2013-07-10 23:56:00,64.2,57.2,29.96,NW,319,0.0,0.0,78,0.00,,,0.00,Wunderground v.1.13,2013-07-11 04:56:00,
2013-07-10 23:59:00,64.1,57.1,29.96,NW,319,0.0,0.0,78,0.00,,,0.00,Wunderground v.1.13,2013-07-11 04:59:00,